GFSGBSN_sfc_wetblb_096.txt.gz
Wetbulb
57.89 57.38 57.25 57.14 56.92 57.02 56.56 56.35 56.29 56.19 56.44 56.30 56.33 56.13 56.11 56.11 56.20 56.20 56.37 56.37 56.31 56.19 56.09 57.09 57.49 57.84 54.43 49.09 49.52 60.80 72.54 68.80 66.25 59.37 54.25 52.91 55.55 57.31 55.33 59.05 60.98 59.89 60.96 64.01 66.00 65.84 65.14
58.41 57.55 57.03 56.84 56.93 56.66 56.34 56.32 56.63 56.95 56.63 56.33 56.23 56.33 56.04 56.00 56.17 56.26 56.26 56.09 55.89 55.72 55.89 56.98 57.44 57.63 50.37 40.34 58.38 64.86 63.46 61.33 55.86 53.22 52.75 55.70 60.31 61.41 57.19 60.66 61.53 63.76 64.35 63.71 65.59 65.15 65.36
58.44 57.80 57.01 56.70 56.20 56.27 56.73 56.80 57.01 56.75 56.47 56.15 55.91 56.49 56.15 55.98 55.90 55.87 55.74 55.31 54.99 55.25 55.70 56.26 57.62 56.37 51.17 48.19 60.71 61.84 58.36 54.21 51.06 51.61 54.60 55.85 61.04 59.62 57.02 54.25 61.57 64.47 60.47 63.67 64.71 63.95 62.92
59.07 57.96 57.51 57.10 57.14 57.04 56.93 56.87 57.02 56.87 56.26 56.05 55.85 55.88 55.71 55.59 55.80 55.66 56.17 55.83 55.66 55.78 56.42 57.05 57.86 53.92 46.21 57.93 56.55 56.25 57.51 53.05 52.45 50.96 53.92 59.26 61.76 58.60 55.22 54.92 57.81 59.56 60.49 55.73 62.41 63.58 63.90
59.44 58.70 57.68 57.44 56.26 56.92 57.27 57.14 56.96 56.37 56.15 55.82 55.90 56.01 55.50 55.61 56.23 56.18 55.71 55.37 55.76 57.17 58.17 59.38 51.23 49.41 47.04 61.65 56.24 56.57 57.15 53.84 50.42 50.78 53.70 57.99 57.09 53.85 51.90 47.84 44.74 55.01 52.30 54.71 59.85 63.15 62.70
58.92 59.09 58.11 57.11 56.98 57.12 57.03 57.09 57.11 56.58 56.15 56.25 55.76 55.50 55.46 56.13 56.25 55.38 54.70 54.78 55.18 56.28 58.01 57.38 55.78 48.13 52.70 54.43 55.37 56.84 56.82 55.57 51.08 51.23 53.72 53.21 51.66 46.15 45.29 43.39 38.73 43.59 51.17 54.30 56.65 60.60 60.61
59.24 58.64 58.12 57.21 56.86 56.91 57.07 57.02 57.02 56.90 56.32 55.98 55.62 55.48 55.03 54.98 55.46 54.42 51.17 51.35 50.38 49.91 51.56 45.93 48.23 52.33 55.27 56.03 58.82 55.98 57.20 53.37 51.90 51.25 47.27 50.39 43.97 41.60 44.60 46.11 47.93 47.61 47.37 54.22 56.78 60.77 58.31
59.93 58.41 58.56 57.65 57.06 57.07 56.90 56.90 56.74 56.68 56.68 56.08 55.77 54.97 54.68 54.12 54.62 53.81 49.76 47.74 52.70 50.02 44.30 53.97 52.62 53.86 55.87 54.45 52.11 54.55 57.64 50.64 49.72 46.65 48.88 45.43 41.68 47.24 49.62 49.53 48.52 47.92 49.60 55.03 57.72 59.64 59.25
60.15 59.09 58.12 57.97 56.98 56.77 56.90 56.88 56.47 56.49 56.43 56.12 55.94 55.97 55.67 54.65 53.68 48.81 48.90 50.84 55.81 52.65 43.02 47.59 52.53 51.94 52.72 52.51 51.25 52.76 54.79 51.90 48.70 46.48 46.31 42.80 46.61 51.02 49.76 48.13 46.32 45.04 44.10 54.26 55.04 55.63 56.68
59.82 59.26 58.04 58.22 56.99 56.37 56.60 56.55 56.35 56.37 56.31 56.21 56.05 55.55 55.25 54.01 48.98 49.62 49.52 53.11 53.24 52.22 37.05 43.44 45.71 52.34 53.28 52.50 50.10 56.33 55.73 52.53 48.79 46.33 46.99 45.61 49.91 49.77 47.88 46.97 45.86 39.79 48.93 56.77 56.46 53.63 50.08
59.37 58.95 58.25 57.93 57.27 56.17 56.24 56.19 56.05 56.07 55.95 55.81 55.85 55.43 54.08 52.96 47.42 47.38 52.59 52.02 54.65 47.51 30.80 49.82 48.24 54.85 49.96 50.21 51.49 51.54 55.77 51.74 47.07 47.47 45.84 44.44 46.48 46.79 46.36 47.12 47.32 45.37 51.47 56.98 56.50 51.25 52.73
58.87 58.86 58.58 58.05 57.92 56.25 55.88 55.97 55.93 55.89 55.67 55.53 55.28 54.56 53.77 50.58 48.52 50.84 53.19 52.67 48.57 37.83 32.79 46.99 48.97 47.55 45.34 46.76 49.40 51.38 51.92 52.19 51.86 47.57 46.54 46.53 50.33 48.23 47.73 50.21 49.51 50.85 54.98 54.72 54.10 48.96 43.24
58.99 58.64 58.36 57.93 57.77 56.24 55.41 55.69 55.89 55.53 55.28 54.72 53.81 52.67 51.53 53.74 48.48 52.61 52.47 48.67 38.33 34.05 47.04 45.00 44.07 46.50 44.63 44.46 46.93 48.09 48.25 45.81 43.10 38.56 39.32 46.50 46.99 48.89 49.52 45.21 47.48 48.42 43.43 38.05 41.61 41.11 40.56
59.01 58.55 58.32 57.65 57.32 56.22 55.39 55.83 55.87 55.46 54.98 54.07 52.16 51.30 50.13 52.90 51.22 52.35 50.67 44.21 35.04 43.21 41.93 47.44 46.25 45.34 41.84 44.55 46.80 47.82 45.91 42.66 45.81 44.48 40.40 39.30 39.60 45.68 49.35 46.62 44.89 44.62 44.23 38.32 36.51 37.06 40.39
59.11 58.54 57.95 57.51 56.99 56.43 55.31 55.93 55.51 54.94 54.45 53.12 51.04 47.40 48.83 52.15 53.31 51.87 46.88 36.76 37.38 41.43 45.79 45.55 44.24 40.35 42.82 45.96 46.30 46.02 44.91 42.65 45.36 45.14 40.98 39.27 40.43 49.15 50.74 50.10 48.45 43.88 42.46 45.66 41.84 41.04 41.58
59.15 58.72 58.14 57.45 57.35 56.69 55.31 55.93 55.42 54.88 54.27 52.42 48.11 48.20 49.00 55.91 56.10 50.00 42.52 38.68 41.38 47.73 46.92 45.82 38.83 40.71 37.89 41.93 43.10 42.77 45.03 48.36 47.20 49.51 45.98 44.71 39.56 44.71 50.11 49.95 50.68 47.32 49.01 42.09 39.79 36.95 37.95
58.92 58.53 57.92 57.73 57.52 56.63 55.47 56.07 55.38 54.49 53.40 51.98 49.95 47.22 52.64 56.75 53.91 46.06 38.75 39.25 46.30 50.12 50.09 44.06 42.05 39.90 40.46 41.66 42.57 41.36 44.07 48.13 50.16 48.82 47.55 43.97 40.61 42.94 46.20 43.78 45.03 46.05 43.60 44.11 42.33 40.81 41.38
58.49 58.07 57.46 57.56 57.23 56.55 55.56 56.05 54.86 53.43 52.14 51.87 48.93 44.25 54.46 53.88 45.44 42.83 40.25 44.98 47.67 45.58 46.47 44.53 46.12 44.72 42.50 43.80 42.49 43.24 43.84 46.81 51.83 49.80 43.80 43.84 39.74 36.63 41.41 47.19 50.50 47.63 44.77 42.54 39.45 40.92 43.21
58.15 57.43 57.45 57.64 57.54 56.58 55.80 55.67 54.52 53.15 52.48 49.06 46.86 47.08 52.73 52.70 41.73 40.18 42.94 46.33 47.94 44.11 44.49 46.55 46.18 45.70 44.22 42.12 40.70 44.74 47.38 51.79 52.09 45.93 41.12 42.65 38.34 35.29 39.52 41.37 44.18 41.83 43.96 41.96 41.97 43.85 40.74
57.78 57.20 57.35 57.36 57.28 56.07 55.74 55.46 54.33 53.34 52.82 49.22 47.74 44.59 45.85 45.11 44.36 43.50 41.47 41.90 40.59 46.85 46.79 47.69 47.13 46.13 44.05 41.17 44.76 44.27 45.19 50.49 51.29 47.55 54.90 50.11 37.91 39.00 35.65 38.00 41.20 40.08 43.62 44.62 40.86 40.91 40.60
57.31 56.75 57.70 58.03 57.58 55.77 56.00 55.57 54.60 53.80 52.56 49.89 48.81 45.20 42.84 39.18 40.41 40.14 41.19 42.99 43.07 42.26 45.68 45.81 45.80 47.88 45.32 40.86 43.21 43.22 46.43 46.34 48.80 52.88 47.19 43.99 36.81 38.66 43.02 44.36 44.35 42.04 42.92 45.04 44.83 44.78 41.50
57.48 56.36 57.32 58.19 57.08 55.61 55.94 55.87 55.16 54.13 52.28 53.12 47.40 46.55 48.83 42.85 43.35 40.38 39.88 37.89 41.45 41.56 42.35 42.46 43.51 47.54 46.48 41.83 42.23 41.25 42.67 41.05 42.92 46.25 43.08 41.81 41.55 38.98 41.80 44.19 45.13 41.72 44.14 47.36 50.23 49.76 50.52
57.23 56.44 56.90 58.28 57.16 55.57 55.72 56.03 55.55 54.05 51.44 50.72 52.93 51.57 50.03 46.54 39.64 38.57 37.74 40.44 43.58 44.86 43.91 46.05 46.56 44.95 43.73 45.36 45.43 43.25 44.28 42.95 43.25 43.47 43.07 40.25 37.67 39.43 36.59 42.56 41.39 36.98 41.28 42.41 47.29 50.68 52.47
56.81 56.69 56.62 58.12 57.52 55.49 55.54 56.28 56.24 55.02 52.79 49.10 52.33 50.47 48.02 44.90 40.87 41.87 45.52 46.31 45.16 44.44 41.51 44.49 45.29 42.56 46.14 47.45 45.46 43.75 42.36 41.85 43.54 42.33 42.31 39.52 37.92 36.36 35.41 39.43 30.51 39.45 44.46 47.29 51.54 53.05 53.76
56.33 56.99 56.84 57.14 57.82 55.69 55.41 56.44 56.46 55.81 54.41 48.25 49.99 49.95 47.48 43.75 44.83 44.44 44.52 44.24 43.93 44.05 42.43 43.62 45.15 45.13 45.03 42.29 38.45 36.34 36.09 38.18 40.29 42.15 39.75 42.06 36.95 34.97 32.36 33.05 40.79 44.47 44.20 43.06 45.29 48.75 55.18
54.78 56.31 56.69 56.30 57.58 55.92 55.11 56.31 56.67 55.99 54.60 49.04 49.24 53.08 50.14 46.19 43.69 48.33 44.85 45.04 41.65 40.17 42.10 43.61 45.75 46.03 44.52 39.31 38.43 32.44 33.93 38.03 38.49 39.90 40.95 39.99 38.75 35.86 32.95 30.42 31.85 42.21 47.37 48.10 50.34 45.58 55.24
54.29 55.18 56.33 56.32 57.28 55.82 54.26 55.30 56.30 56.53 55.02 51.06 49.35 53.62 50.49 46.22 48.09 46.15 45.27 43.97 45.70 43.18 41.52 42.15 42.45 43.52 43.56 38.62 36.43 33.35 34.65 42.35 34.41 35.07 35.31 33.25 34.53 33.53 33.52 32.38 37.76 44.74 47.38 49.81 38.04 39.84 51.83
54.16 54.74 55.71 55.67 56.55 55.90 54.24 54.84 55.95 56.01 56.00 52.14 50.72 54.00 50.24 45.34 47.78 51.93 51.21 47.17 47.16 45.01 41.06 43.37 42.50 44.10 39.72 37.40 38.21 33.84 33.82 36.19 35.30 38.18 36.00 35.58 31.84 31.46 33.56 30.71 29.62 48.55 47.37 43.46 44.44 46.07 52.01
53.94 54.45 55.28 55.29 55.99 56.13 54.27 54.89 55.94 55.79 55.69 54.69 51.20 55.51 56.34 49.76 49.35 53.20 52.97 52.07 51.37 49.76 46.45 43.46 43.92 42.53 41.31 39.52 38.99 39.28 35.97 36.89 34.86 30.18 40.72 36.25 38.87 37.41 38.87 38.07 44.54 46.81 46.47 48.26 47.82 48.15 47.85

GFSGBSN_sfc_wetblb_102.txt.gz
Wetbulb
58.34 58.29 57.64 57.51 57.09 57.02 57.03 56.61 56.35 56.47 56.46 56.56 56.64 55.91 55.50 55.48 55.57 55.54 55.54 55.79 55.82 55.27 55.15 55.37 55.80 57.40 52.13 43.91 44.72 51.81 71.21 66.94 64.95 57.67 52.33 50.88 51.89 52.74 51.62 56.39 60.26 59.23 61.42 64.28 65.23 64.45 64.66
58.64 58.51 58.11 57.28 57.13 56.58 56.52 56.51 56.49 56.51 56.63 56.41 56.13 55.87 55.49 55.23 55.32 55.25 55.05 55.00 54.52 54.46 54.49 54.68 55.38 57.27 47.48 36.28 47.45 61.94 63.82 60.80 59.87 54.95 50.98 51.63 54.07 58.31 57.59 58.34 57.71 61.71 62.82 62.71 64.76 64.27 64.23
59.22 57.92 58.01 58.02 56.94 57.23 56.58 56.46 56.37 56.49 56.37 56.23 55.86 55.87 55.71 55.24 55.32 55.57 55.64 55.46 55.30 55.10 54.86 54.73 55.67 55.95 49.07 42.57 55.72 60.63 59.41 55.25 55.11 52.18 49.89 51.36 58.08 57.43 58.38 55.89 61.87 63.94 60.25 62.36 63.22 63.46 62.62
60.11 58.77 57.88 58.51 57.71 57.06 56.48 56.39 56.27 56.40 56.68 55.96 55.94 56.05 55.61 55.27 55.17 55.20 56.01 55.94 54.97 55.03 54.77 55.33 56.21 51.39 41.80 50.95 54.29 54.99 53.55 51.89 52.08 47.80 51.78 52.11 58.87 57.85 55.96 56.51 55.62 60.04 59.25 55.01 62.47 62.76 62.69
60.06 59.61 58.55 58.09 58.31 57.60 57.03 56.27 56.27 56.12 56.15 56.11 56.05 55.80 55.52 54.93 54.48 54.27 55.10 55.14 55.83 55.66 55.76 56.97 48.45 45.80 42.06 57.02 54.23 54.14 54.47 51.11 48.41 47.28 49.22 56.45 55.97 53.34 51.83 46.10 43.52 52.09 50.75 53.97 57.76 63.01 61.69
59.82 59.84 59.66 58.43 57.99 57.81 57.13 56.31 56.45 56.01 55.86 56.01 55.75 55.44 55.15 54.56 54.03 53.16 53.74 54.25 57.07 56.87 57.17 56.47 54.84 45.51 50.11 51.19 53.70 52.65 54.21 50.54 47.96 46.78 48.99 48.18 48.17 45.13 42.96 41.84 38.18 43.82 49.31 54.17 55.14 59.29 61.37
60.20 60.14 59.96 59.03 57.77 57.79 57.29 56.87 56.54 56.43 56.49 55.98 55.71 55.32 54.95 54.64 54.04 52.69 49.22 50.28 45.87 44.52 48.46 44.43 44.84 47.11 50.42 53.95 54.70 52.07 54.82 52.23 49.28 46.88 42.62 46.77 44.19 42.86 43.68 45.15 46.50 45.74 51.13 54.42 56.44 61.06 58.08
60.25 59.31 59.44 58.81 58.11 57.21 57.61 56.57 56.56 56.52 56.68 56.08 55.66 55.43 54.88 54.47 53.86 53.16 48.68 44.18 46.65 48.31 43.57 50.03 50.54 50.31 52.44 52.33 48.95 51.40 53.80 47.87 46.41 42.82 46.10 43.56 42.12 46.78 48.67 47.69 47.90 47.71 53.03 54.48 57.33 59.29 58.64
60.39 59.60 58.75 58.68 58.18 57.31 57.42 56.56 56.10 56.37 56.37 56.39 56.27 55.51 54.82 54.11 53.19 49.30 45.82 47.76 50.69 49.18 40.76 45.44 49.80 49.18 48.94 50.96 49.09 49.81 51.43 47.72 45.13 44.68 44.89 42.36 44.96 48.62 47.50 46.01 45.62 44.16 48.60 53.82 54.26 57.91 58.85
60.03 59.53 58.78 58.26 57.49 57.16 56.68 56.70 55.98 56.03 56.17 56.11 56.05 55.91 54.66 53.02 47.59 47.32 46.39 49.47 49.71 49.12 36.40 43.33 44.37 49.01 49.79 50.05 46.41 53.41 53.20 51.12 46.43 44.15 45.62 43.83 47.80 47.09 45.10 45.04 45.92 40.54 48.66 57.12 54.94 52.33 48.05
59.63 59.26 59.15 58.36 57.57 57.28 56.44 56.53 55.69 55.87 55.85 55.75 55.83 55.16 53.45 52.33 46.25 46.96 50.23 49.39 48.22 44.94 30.20 47.30 46.90 51.58 47.47 46.42 48.46 49.11 53.91 49.91 44.74 45.40 44.81 43.24 44.51 44.47 43.61 45.12 45.68 45.26 50.03 55.81 55.17 50.96 48.61
59.72 59.30 59.43 58.74 57.22 57.13 56.33 56.49 55.35 55.47 55.63 55.49 55.26 54.23 53.02 49.59 48.73 50.22 52.40 48.81 45.93 37.77 33.28 44.04 47.39 46.38 43.07 44.29 46.90 49.25 50.17 50.85 49.15 45.11 43.98 44.99 47.09 46.27 45.99 47.33 47.49 50.76 53.97 51.13 50.88 48.24 43.00
59.32 59.10 59.15 58.65 57.29 56.95 56.14 56.29 55.39 55.36 55.20 54.74 53.75 52.62 51.51 51.84 47.09 50.63 50.06 47.91 37.94 33.00 44.13 41.81 41.65 43.70 41.44 42.28 44.61 45.47 46.07 42.93 41.12 36.79 35.37 42.55 43.86 45.65 46.99 42.37 43.74 45.19 44.05 39.98 40.13 40.47 40.89
59.08 58.65 58.67 57.74 56.97 56.78 56.35 56.23 55.26 55.20 54.82 53.93 51.90 50.56 49.94 51.54 50.01 50.09 48.49 42.69 33.28 41.43 39.54 43.89 43.09 40.81 40.41 43.00 44.21 45.19 42.58 40.57 43.52 41.09 36.91 36.78 36.44 44.26 46.10 44.49 41.38 42.54 42.59 39.76 34.58 36.59 39.47
58.58 58.50 58.36 57.19 56.84 56.84 56.18 55.73 55.00 54.84 54.39 53.17 50.78 45.32 46.40 48.70 51.08 48.84 45.02 35.05 34.70 38.99 42.95 42.67 40.97 38.84 39.45 42.70 43.22 43.33 41.03 40.20 42.55 40.52 36.53 35.64 38.47 46.80 46.31 45.11 46.11 41.30 40.32 45.23 39.98 37.53 41.36
58.54 58.34 57.90 56.87 56.92 56.57 56.22 55.45 55.06 54.80 54.21 52.59 46.66 46.17 47.01 51.11 50.98 46.78 41.03 35.87 38.81 44.38 44.56 42.78 36.02 37.99 35.86 40.07 39.71 40.72 39.89 44.63 43.93 46.11 41.51 39.16 35.83 42.48 47.24 47.59 46.88 44.02 45.37 39.24 36.81 33.46 34.42
58.34 58.10 57.56 57.22 57.22 56.40 56.16 55.39 55.14 54.41 53.42 51.90 45.76 45.64 49.67 50.55 48.74 45.10 37.69 36.06 42.84 46.86 47.50 40.93 38.43 38.48 38.32 38.73 40.08 39.64 42.07 44.56 47.38 45.97 43.64 40.58 38.43 41.11 42.72 40.81 42.64 42.91 40.34 38.82 39.10 38.13 36.37
58.09 57.52 57.10 57.31 57.41 56.80 56.12 55.33 54.78 53.52 52.00 48.89 43.77 42.78 50.14 49.14 43.41 38.38 38.03 40.50 45.42 43.67 45.45 42.95 42.34 41.31 39.78 41.40 40.41 40.34 41.39 43.39 48.98 46.22 39.66 41.08 37.71 36.05 41.00 43.57 44.80 43.20 41.47 40.45 37.49 36.61 39.48
57.79 57.54 57.12 57.40 57.49 57.17 56.44 54.92 54.36 53.24 52.25 47.46 43.39 42.96 50.40 48.73 38.27 36.55 40.05 43.55 44.88 41.97 41.34 43.16 42.35 42.71 43.76 40.60 37.15 41.78 45.01 49.11 49.90 44.48 38.62 41.16 36.45 34.61 38.39 39.07 42.50 39.01 39.52 39.31 39.41 42.15 40.60
56.74 57.40 57.48 57.32 57.62 57.29 56.56 54.66 54.12 53.32 52.31 47.44 44.18 39.66 43.15 42.03 39.46 39.87 39.04 39.10 37.78 44.87 42.84 42.64 42.94 42.74 40.73 39.12 39.78 39.39 43.89 47.98 47.72 46.42 53.59 46.62 36.79 37.52 34.60 35.93 38.18 38.76 39.84 41.20 38.69 37.14 39.73
55.57 56.48 57.34 57.40 57.58 57.43 56.94 54.72 54.64 53.64 52.02 47.12 43.87 41.13 42.32 36.37 38.48 36.24 36.95 38.47 39.96 38.61 41.92 44.16 43.97 44.37 40.78 37.27 38.26 39.85 41.85 42.58 46.59 49.63 43.78 40.71 36.90 36.64 39.45 41.70 41.61 39.80 39.59 41.06 39.54 40.22 42.30
54.66 55.37 56.52 57.38 57.52 57.39 56.92 54.99 55.18 54.02 51.76 47.88 44.84 43.30 44.30 41.03 38.52 35.85 36.79 35.20 38.03 38.41 39.62 40.68 41.64 43.50 43.66 40.16 39.50 37.75 39.12 38.38 37.96 43.84 39.97 39.19 36.57 36.32 40.16 42.99 41.80 39.80 43.89 42.38 48.05 46.86 48.72
54.31 54.48 55.77 57.12 57.44 57.20 56.79 55.29 55.32 54.08 50.57 47.35 47.82 47.78 45.07 41.04 35.65 35.92 35.28 37.38 40.33 40.50 40.83 43.21 44.08 42.96 41.78 43.88 43.40 43.74 42.44 40.58 38.13 37.26 40.10 39.26 36.39 35.51 33.77 40.09 41.13 36.30 39.97 42.24 42.82 50.64 50.46
53.94 53.93 54.86 56.34 57.10 57.12 56.76 55.74 55.59 55.14 52.27 45.82 47.10 47.63 42.96 38.50 38.81 39.74 41.56 42.48 41.83 40.54 38.83 40.95 41.23 40.69 43.21 45.27 44.34 43.33 39.81 41.24 41.74 39.62 39.74 41.27 36.73 34.73 34.38 36.58 31.88 42.29 44.34 48.49 50.80 52.08 52.71
54.01 53.88 54.29 55.25 56.66 57.28 56.61 56.38 55.68 55.77 54.24 46.18 45.49 46.71 44.83 41.73 42.43 41.06 41.59 41.86 41.45 40.36 39.97 41.27 41.84 42.50 41.22 40.78 37.75 36.22 37.48 37.59 42.21 41.38 38.15 38.89 38.73 35.87 34.24 33.50 39.17 42.59 43.57 42.54 45.21 48.80 54.29
54.23 53.88 53.86 54.47 55.65 56.40 56.75 56.97 55.47 55.89 54.72 46.84 46.37 49.34 47.50 41.84 41.97 47.59 41.83 41.90 38.97 38.45 40.17 41.27 43.08 42.61 42.75 36.62 36.12 30.24 30.73 36.10 37.08 39.33 39.14 38.40 37.80 37.55 32.37 31.04 32.08 41.56 46.32 48.56 50.19 39.63 55.32
54.92 54.63 53.63 53.92 55.17 55.39 56.65 56.86 54.77 56.01 55.04 49.53 48.44 49.68 47.59 43.14 45.06 43.51 42.22 41.38 42.58 40.28 38.99 39.67 41.07 40.90 41.30 36.96 33.34 28.77 31.70 39.31 32.48 33.36 33.82 33.08 32.38 30.38 31.81 31.44 35.95 43.23 46.80 48.51 38.11 38.69 54.86
54.80 54.76 54.55 53.65 54.51 55.20 56.16 56.13 54.57 55.40 55.67 51.25 50.02 51.27 47.27 43.58 45.67 48.61 48.33 44.53 44.34 41.94 39.85 40.98 40.95 41.29 38.29 36.14 35.35 30.78 30.16 32.97 33.16 34.75 33.74 34.37 30.91 30.17 29.86 29.27 29.11 45.06 45.83 40.87 43.01 48.75 54.86
54.27 54.51 54.66 53.96 53.84 55.08 55.90 55.82 54.71 55.19 55.10 53.52 48.00 51.00 51.46 47.10 46.80 49.93 51.07 49.02 48.59 48.90 43.83 40.49 41.41 39.74 40.11 37.21 36.30 35.61 32.59 33.56 30.11 27.14 37.21 34.07 36.34 35.39 35.98 34.48 41.50 44.30 43.94 46.10 45.86 48.60 50.96

GFSGBSN_sfc_wetblb_105.txt.gz
Wetbulb
58.97 57.82 58.06 57.71 57.15 57.12 56.70 56.51 56.72 56.53 56.52 56.60 56.55 56.33 56.00 55.79 55.23 55.11 55.17 55.15 54.95 55.00 55.02 54.91 55.23 56.59 55.67 48.99 47.41 52.81 66.56 66.09 67.86 58.64 57.59 56.71 54.11 57.24 57.75 58.10 61.99 60.97 61.92 63.99 64.93 64.30 65.14
60.07 58.94 57.72 58.14 57.68 56.87 56.38 56.43 56.54 56.66 56.69 56.61 56.49 55.88 55.77 55.44 55.30 55.45 55.50 55.15 54.78 54.48 53.88 54.41 54.73 56.80 52.40 43.61 53.68 64.72 66.68 64.58 63.34 56.86 55.34 56.95 55.25 60.76 59.28 59.41 61.17 61.85 63.26 63.18 65.12 63.99 65.03
60.36 60.01 58.50 58.12 58.33 57.51 57.08 56.15 56.59 56.45 56.36 56.39 55.98 55.84 55.67 55.42 55.22 55.64 55.34 55.54 55.16 54.98 54.97 54.40 55.32 56.49 51.42 47.79 56.03 64.63 62.64 60.52 61.92 56.81 54.11 56.27 60.22 60.66 61.54 57.81 63.07 63.98 60.24 63.05 63.89 63.99 62.93
60.25 60.22 59.65 58.40 57.79 57.90 57.11 56.36 56.19 56.25 56.32 55.97 56.28 56.04 55.77 55.18 54.89 54.74 54.42 55.37 54.79 54.85 54.51 54.96 56.30 55.57 46.84 52.79 57.34 61.95 57.49 57.11 56.23 55.13 55.92 56.19 62.65 62.08 60.43 59.47 59.62 60.81 60.74 56.72 62.51 63.26 62.82
60.51 60.29 60.03 59.03 58.08 57.13 57.85 56.92 56.45 55.88 55.86 56.14 55.93 55.80 55.69 55.15 54.63 54.00 53.22 53.90 55.34 55.39 55.60 56.98 54.58 52.52 46.10 59.31 55.85 59.39 57.39 52.97 56.04 54.84 54.08 56.10 58.33 58.89 57.38 52.13 55.93 58.15 53.81 55.66 58.90 63.14 61.76
60.80 59.87 59.62 59.56 58.50 57.54 57.41 57.40 56.75 56.57 56.17 56.42 55.98 55.76 55.22 54.77 54.48 53.77 52.98 54.68 57.56 57.70 57.12 56.87 55.85 50.47 54.08 53.44 56.05 57.61 57.36 54.98 52.60 52.51 52.14 53.13 54.35 55.55 53.27 51.05 49.71 53.12 53.35 56.46 54.80 60.17 61.89
60.80 60.48 59.70 59.35 58.66 57.76 57.21 57.58 56.89 56.43 56.27 55.93 55.72 55.52 55.01 55.04 54.43 53.57 52.12 54.95 51.61 51.15 53.17 50.44 50.37 49.93 51.93 56.38 56.91 55.01 56.08 52.75 51.93 51.21 48.77 52.23 52.20 51.90 54.83 52.03 52.20 55.86 54.16 55.49 59.13 60.78 59.33
60.75 60.52 60.11 59.04 58.51 57.73 57.15 57.04 56.94 56.26 56.42 56.12 55.43 55.19 54.84 54.72 54.10 53.51 50.89 50.10 52.28 53.88 49.27 52.48 52.41 51.59 53.68 55.12 52.14 53.30 56.79 50.91 48.57 46.91 50.79 49.88 49.34 54.29 53.30 51.52 51.70 58.13 57.12 55.88 57.62 58.98 59.10
60.39 59.96 59.63 59.29 58.01 57.65 56.95 56.38 56.69 56.15 56.25 56.49 56.15 55.14 54.37 53.57 52.61 51.11 50.16 51.92 55.02 54.75 48.79 49.19 52.22 52.09 52.50 54.23 52.51 52.51 55.69 51.60 47.89 48.02 49.87 47.83 50.95 53.76 51.38 50.03 50.39 50.82 52.97 55.62 56.05 58.14 59.27
59.97 59.33 59.11 59.16 58.42 57.49 56.87 56.42 56.73 55.99 55.89 56.01 56.03 55.72 53.77 52.69 50.09 51.74 51.13 53.98 54.07 54.13 45.51 48.11 50.22 52.46 53.44 53.46 51.05 55.93 56.37 52.69 50.68 48.18 50.71 52.22 51.64 52.08 49.58 49.37 50.64 48.94 52.39 58.61 55.53 54.18 50.98
59.52 59.16 59.04 58.99 58.16 57.49 56.82 56.12 56.43 55.95 55.76 55.74 55.80 54.65 52.95 52.14 50.96 50.77 52.97 54.64 53.13 50.28 36.49 49.64 50.44 55.55 53.04 51.16 52.84 52.81 56.87 54.53 49.92 49.99 50.15 48.95 49.89 49.44 48.49 49.50 50.73 49.19 53.56 58.10 57.64 55.00 54.10
59.22 59.02 59.03 58.72 57.50 57.19 56.87 55.99 56.01 55.62 55.40 55.50 55.24 53.37 52.52 51.14 51.43 53.60 55.25 53.10 50.78 43.55 36.12 46.28 50.21 49.12 49.13 49.72 51.36 53.25 53.87 54.95 53.09 50.36 50.59 49.83 51.68 52.07 51.76 52.02 51.74 57.94 57.19 56.90 56.37 54.33 47.86
58.96 58.80 58.69 57.87 57.31 57.06 56.45 55.91 55.66 55.26 55.00 54.65 53.67 51.79 51.14 53.40 51.52 54.36 54.44 52.48 44.46 38.74 47.27 44.36 45.93 47.62 46.62 46.77 49.27 51.02 50.71 49.54 48.02 44.78 45.76 48.09 48.64 50.70 51.18 48.95 50.82 54.42 52.84 47.23 45.86 46.31 44.44
58.80 58.38 57.98 57.12 56.84 56.76 56.16 56.12 55.42 55.08 54.87 54.03 51.43 50.47 51.39 53.15 55.01 53.96 53.94 48.76 38.70 43.44 43.51 47.78 47.03 46.42 45.78 47.58 48.30 48.44 48.19 46.93 48.24 47.87 45.56 43.88 42.04 48.85 50.78 49.91 47.95 51.06 52.07 47.37 41.19 42.98 45.83
58.26 58.30 57.63 56.99 56.89 56.80 56.42 55.93 54.98 54.94 54.43 52.67 50.65 51.40 52.32 54.12 54.06 53.49 52.02 41.71 41.53 43.71 46.34 46.07 45.86 44.66 44.95 47.22 47.65 47.88 46.63 46.31 47.84 49.00 44.93 43.86 43.89 50.61 49.88 51.39 51.18 47.56 45.67 52.12 48.41 49.64 48.33
58.23 58.25 57.61 57.38 57.35 56.38 56.75 55.73 54.87 54.81 53.72 51.89 52.22 53.40 53.87 55.07 54.95 53.86 49.11 40.95 45.02 47.36 48.81 47.29 42.61 44.69 43.18 45.45 46.16 46.96 45.86 48.94 47.68 49.44 49.76 47.65 43.05 49.09 50.99 50.77 50.76 50.39 51.93 45.82 48.54 43.35 42.74
57.88 57.98 57.58 57.31 57.37 56.63 56.95 56.03 54.87 54.43 53.00 51.70 52.51 53.58 54.33 56.00 54.65 52.49 45.39 44.45 46.88 50.20 50.45 46.65 45.17 45.23 45.18 44.93 46.24 46.21 45.49 48.80 50.32 49.54 48.93 48.93 47.05 47.86 49.57 48.80 47.99 48.26 47.94 48.43 50.34 48.31 45.65
56.38 56.99 57.18 57.27 57.13 56.68 56.96 55.99 54.29 53.55 52.00 50.79 51.63 51.25 55.41 54.84 51.02 46.17 47.20 46.61 46.16 48.57 49.81 48.31 48.28 47.54 46.35 46.36 46.03 46.28 45.47 47.83 51.75 51.02 46.52 48.33 48.03 45.58 47.48 50.08 50.50 50.96 49.97 50.74 45.76 45.92 49.59
55.26 56.41 56.94 56.94 57.12 57.13 56.75 55.72 53.86 53.16 52.14 51.15 51.74 52.23 55.81 54.49 46.62 46.50 47.75 48.19 48.57 46.58 46.98 47.56 47.33 48.21 48.85 46.81 44.22 46.94 47.60 51.69 52.55 48.78 46.96 48.93 46.05 43.78 45.56 47.09 48.74 47.99 47.71 49.95 50.75 52.18 49.43
55.41 55.13 56.40 56.92 57.10 57.17 56.48 55.74 53.70 53.47 52.43 52.10 51.03 48.54 50.55 49.89 47.55 48.14 47.18 45.82 44.86 47.48 47.19 47.87 48.11 48.74 47.23 46.44 47.69 45.63 46.70 49.92 50.24 51.27 52.44 52.16 46.42 46.23 42.81 44.84 47.18 45.24 45.40 48.18 50.44 47.40 49.15
54.46 54.59 55.34 56.62 57.30 57.31 56.48 55.88 53.98 53.63 52.18 51.74 51.16 48.59 48.29 46.02 45.57 45.77 46.16 44.87 43.80 43.72 46.91 49.84 48.50 48.12 46.39 45.12 45.46 44.82 46.38 47.44 49.45 51.59 48.41 48.78 45.47 45.90 45.78 45.57 46.29 46.22 48.79 46.17 47.85 49.31 49.13
54.13 54.07 54.87 56.10 56.86 57.37 56.72 56.29 54.53 54.05 51.90 53.67 52.16 51.24 50.53 47.99 44.64 45.03 42.88 43.91 43.20 43.95 45.57 45.38 46.53 47.11 48.12 46.63 46.76 44.00 45.42 46.06 45.36 48.81 48.42 47.89 45.16 45.84 45.06 46.46 46.01 44.57 49.31 50.07 50.41 49.83 52.31
54.29 54.37 54.48 55.07 56.36 57.26 56.91 56.01 54.85 54.02 51.91 53.44 53.37 53.42 51.64 44.10 43.39 45.21 43.92 44.77 44.12 45.43 45.72 46.24 46.50 47.51 46.50 46.01 47.80 48.14 48.12 47.28 46.68 45.94 46.93 47.10 46.99 45.39 42.68 45.76 46.55 43.14 45.37 50.56 51.50 53.79 54.03
54.57 53.91 54.17 54.42 55.51 56.80 56.96 56.04 55.61 54.84 52.99 51.58 53.35 53.80 50.12 45.13 46.17 45.57 45.71 46.09 45.22 45.50 45.25 46.14 46.77 47.49 48.62 49.76 48.70 48.90 48.20 47.81 47.60 46.67 46.60 46.81 46.17 44.44 43.77 45.74 38.79 46.02 49.01 51.54 53.34 54.47 56.13
55.10 54.70 54.39 53.93 54.40 56.19 56.78 56.06 56.30 55.30 54.31 52.64 51.93 52.80 51.56 46.60 46.90 46.49 46.72 46.59 47.20 47.19 46.81 46.19 47.29 49.01 49.04 48.49 46.46 44.15 43.96 44.04 47.15 45.72 45.67 47.46 46.90 42.99 40.77 42.08 44.60 46.09 46.83 47.51 48.73 49.91 56.70
54.83 55.18 54.80 54.11 53.75 55.53 56.04 56.14 56.42 55.57 54.69 53.00 52.79 54.43 54.03 48.90 47.23 48.68 46.75 47.38 47.07 47.26 47.69 47.79 49.73 49.81 50.25 48.12 46.19 39.93 39.50 42.27 42.27 43.67 46.64 46.33 47.79 44.91 42.27 38.13 37.42 46.03 49.09 51.87 53.52 46.69 57.42
54.61 55.00 55.26 54.91 53.71 54.34 55.78 56.30 56.27 55.42 54.89 54.45 54.80 54.77 54.35 51.11 52.49 50.21 49.09 48.46 48.52 47.08 47.77 47.24 47.89 48.72 49.88 47.66 44.16 43.14 42.90 44.50 41.45 40.45 41.93 42.56 42.47 41.51 40.29 39.76 42.49 47.91 50.35 51.47 43.22 45.55 55.48
54.53 54.79 54.75 55.12 54.79 54.05 55.35 56.07 55.96 54.74 55.38 54.43 55.96 56.20 54.47 51.76 53.06 52.94 51.96 50.72 50.03 49.63 48.17 47.81 48.07 48.51 48.31 45.37 45.25 43.95 43.97 44.87 42.67 42.54 42.14 42.28 40.59 41.18 39.13 39.08 37.55 50.21 50.68 46.94 50.33 53.24 56.37
54.23 54.59 54.73 54.92 54.81 54.02 54.66 55.71 55.65 54.82 55.02 54.31 54.36 55.07 55.51 53.43 53.25 54.94 56.04 54.39 53.05 53.90 51.19 48.37 49.34 47.63 49.76 47.27 46.16 45.26 44.42 43.82 41.34 40.34 45.06 42.31 44.88 44.36 43.78 43.77 49.38 50.91 49.96 52.37 52.32 51.99 55.59

GFSGBSN_sfc_wetblb_108.txt.gz
Wetbulb
60.36 59.37 58.57 58.32 58.23 57.49 56.78 56.68 56.79 56.85 57.06 57.27 57.06 56.51 56.14 55.76 55.54 55.59 55.68 55.37 55.20 54.78 54.80 55.17 55.73 56.22 58.43 54.29 50.84 59.09 64.98 65.99 62.51 64.19 61.33 58.97 56.97 58.41 61.56 61.98 63.32 62.52 63.06 65.25 64.21 63.97 64.53
60.56 60.15 59.49 58.40 57.83 58.02 57.38 56.77 56.59 56.68 56.66 56.89 56.82 56.61 56.27 55.75 55.61 55.74 55.60 55.72 55.30 55.16 55.09 55.07 55.40 56.54 56.13 50.42 56.55 65.22 63.55 63.38 61.28 61.10 59.39 59.08 57.11 60.15 63.04 62.43 62.89 63.34 64.29 64.84 63.46 63.35 64.40
60.70 60.64 60.15 59.53 58.36 57.61 57.89 57.14 56.66 56.77 56.41 56.44 56.55 56.45 56.06 55.75 55.56 55.37 55.38 55.46 55.78 55.38 55.41 55.39 55.62 58.10 54.88 53.63 58.04 66.78 64.16 63.29 62.07 61.19 58.34 59.36 59.22 61.91 65.01 62.44 66.01 63.57 61.94 64.36 64.30 64.42 63.34
61.06 60.40 60.19 59.99 58.90 57.64 57.68 57.64 57.39 56.82 56.46 56.60 56.26 56.31 55.93 55.80 55.46 55.09 54.28 53.92 55.10 55.08 55.01 55.16 56.55 58.36 52.66 55.24 61.84 61.94 62.28 62.26 62.20 60.96 60.11 60.24 62.23 64.37 64.47 62.15 63.47 61.96 62.58 58.40 62.01 63.19 63.76
61.15 60.44 60.13 59.59 59.21 58.27 57.24 57.91 57.34 56.81 56.75 56.69 56.21 55.98 55.76 55.44 55.13 54.65 53.66 53.82 54.98 55.81 55.90 57.02 58.13 55.68 50.33 58.95 58.13 58.80 59.32 57.77 58.59 57.95 58.65 58.44 61.05 62.87 62.48 57.61 58.19 60.64 54.03 57.26 58.56 62.96 61.96
61.11 60.88 60.57 59.94 59.05 58.52 57.50 57.20 57.68 57.02 56.39 56.64 55.92 55.77 55.50 55.42 54.97 54.20 53.87 54.88 57.08 57.21 58.13 58.98 58.17 54.31 56.64 53.09 59.65 58.14 57.98 57.84 55.75 55.52 55.04 54.93 58.26 59.88 59.76 57.27 52.49 56.50 56.29 57.17 57.09 61.27 61.32
61.01 60.76 60.62 60.02 58.85 58.23 57.83 56.83 57.08 57.14 56.60 56.21 55.72 55.28 55.23 54.91 54.71 53.93 54.70 59.34 57.45 56.59 57.11 54.94 53.94 53.03 55.14 58.66 60.75 57.61 58.25 55.34 54.39 53.04 51.06 53.40 52.59 55.58 59.24 58.22 56.92 59.66 58.76 56.19 59.40 62.59 59.57
60.84 60.33 60.19 60.08 59.31 58.26 57.89 56.92 56.91 57.09 56.56 56.57 55.64 55.44 54.87 54.61 53.87 53.70 56.06 56.19 56.13 56.80 52.22 56.57 55.56 55.03 56.54 57.77 55.03 56.99 57.66 53.15 51.68 47.88 52.54 50.94 49.65 56.61 60.76 57.48 55.33 58.05 57.51 57.99 59.54 61.15 59.36
60.02 59.75 59.51 59.34 59.07 58.11 57.75 56.63 56.49 56.91 56.42 56.46 56.38 55.24 54.32 53.45 52.71 54.45 57.10 56.78 58.99 58.21 52.82 52.93 54.65 54.74 55.75 56.70 55.03 55.40 56.68 53.48 50.71 49.13 51.15 49.52 51.24 58.80 57.43 55.11 54.09 58.42 57.33 58.42 57.46 58.62 58.46
59.53 59.31 59.01 59.04 58.02 57.70 57.37 56.32 56.59 56.63 56.26 56.22 56.36 55.12 53.76 52.72 52.39 59.05 56.82 58.69 59.21 58.02 49.56 50.03 52.82 54.41 56.07 56.98 52.75 57.71 58.53 53.35 49.88 48.90 51.13 51.30 54.40 55.36 56.72 53.79 54.90 53.33 57.51 59.93 58.62 57.29 51.07
59.23 59.11 58.93 58.02 57.11 57.57 57.29 56.14 56.37 56.16 55.90 55.92 56.02 54.48 52.96 51.68 57.79 55.93 57.50 59.90 59.72 56.64 40.06 51.03 52.52 58.04 56.75 54.15 55.02 55.49 58.62 54.42 49.79 49.71 52.34 51.03 52.10 54.21 54.52 55.57 54.36 52.85 54.66 57.61 58.94 56.53 56.21
59.09 58.78 58.66 58.02 57.54 57.32 56.66 56.15 56.06 55.76 55.53 55.47 54.85 53.58 52.51 54.99 57.77 58.09 59.77 59.02 57.25 47.36 38.92 48.14 52.25 51.13 52.16 53.64 54.05 56.21 55.30 57.70 56.14 51.61 53.56 53.15 57.09 56.22 55.19 55.94 53.55 56.05 55.31 56.32 57.68 55.84 50.23
58.30 58.45 58.03 57.53 57.54 57.15 56.53 56.44 55.90 55.37 55.09 54.64 53.09 51.91 52.61 58.38 56.91 60.68 59.45 57.43 48.57 43.75 49.80 46.70 48.63 51.07 51.44 51.05 52.32 53.33 52.50 51.77 49.79 47.07 47.43 51.33 52.37 55.02 55.46 53.95 55.57 54.97 54.56 48.30 45.86 47.58 48.02
58.36 58.28 57.76 57.51 57.47 56.91 56.69 56.82 55.76 55.13 54.91 53.19 51.39 50.11 54.11 58.75 61.56 59.38 58.31 53.48 42.61 45.77 46.74 50.76 49.85 50.45 49.30 51.10 51.70 51.90 51.78 50.07 52.03 50.58 48.75 46.87 45.51 51.90 54.13 53.36 51.90 53.41 53.83 49.30 43.09 44.77 49.29
58.14 58.28 57.80 57.45 57.34 57.09 56.56 56.80 55.45 54.74 54.32 52.65 50.72 59.11 59.20 61.14 59.96 59.00 55.97 47.58 45.27 46.96 49.41 48.68 49.16 47.40 48.08 50.53 50.97 50.62 50.43 50.74 51.49 51.75 47.61 46.87 46.94 53.09 53.80 54.37 53.52 52.99 51.18 56.32 52.04 53.41 49.28
56.74 57.41 57.58 57.33 57.37 56.98 56.69 56.58 55.15 54.60 54.18 52.27 61.39 60.31 59.51 60.28 60.58 58.72 52.86 44.61 48.15 51.04 51.63 50.49 45.97 48.86 46.01 48.22 48.65 49.77 49.29 51.74 50.74 52.63 54.02 50.48 46.08 51.29 52.44 53.83 53.90 53.15 55.80 50.77 51.78 46.12 45.54
55.99 56.02 56.75 57.15 57.11 57.03 56.95 56.51 55.15 54.28 53.30 51.96 59.79 56.72 59.98 61.71 60.42 56.35 48.24 48.53 50.01 52.11 52.85 49.82 48.17 47.90 48.56 48.27 49.75 48.91 48.98 51.49 52.38 52.17 53.80 52.07 50.05 49.87 52.21 50.04 49.27 50.37 50.17 51.58 52.05 51.39 47.54
55.72 55.81 56.31 56.65 56.81 57.03 57.06 56.20 54.74 53.54 51.99 53.02 58.78 53.77 61.42 60.30 53.13 54.55 49.73 50.74 47.54 50.24 52.41 51.29 51.66 50.34 49.41 49.54 49.57 49.00 48.34 50.85 53.41 53.93 50.59 53.43 51.13 48.25 49.29 53.08 53.62 53.10 51.01 51.62 47.15 47.86 51.27
55.60 55.69 55.87 56.05 56.67 57.13 57.02 55.98 54.46 53.00 52.12 58.93 59.33 57.53 61.91 58.94 49.94 49.70 51.94 50.11 50.70 49.77 50.42 50.30 49.65 51.02 51.65 49.73 47.72 50.33 50.40 53.33 53.54 52.23 51.50 53.64 49.86 45.88 47.83 51.26 52.94 51.19 52.37 52.71 52.43 51.72 49.99
55.06 55.00 55.51 55.83 56.43 57.10 57.07 55.58 54.46 53.34 52.68 57.12 57.32 51.90 56.06 59.42 57.16 52.29 49.42 48.38 47.76 50.51 50.34 51.29 50.76 51.66 50.07 49.54 51.73 49.39 49.86 51.84 52.22 53.56 52.14 52.57 51.09 49.06 45.19 48.12 51.40 49.66 50.59 52.07 52.08 48.97 49.75
54.51 54.74 54.86 55.55 56.20 56.90 57.17 55.70 54.81 53.56 52.76 57.03 58.66 53.72 53.36 50.05 51.71 52.64 51.55 49.36 46.60 46.70 50.56 51.89 50.56 50.13 49.37 47.83 48.61 48.64 50.29 51.21 51.88 52.18 52.92 52.71 48.87 50.19 50.74 50.25 50.19 49.99 50.28 50.83 50.72 51.74 49.83
54.82 54.94 54.58 54.86 55.61 56.49 57.03 56.00 55.35 53.98 52.34 60.38 57.24 56.30 57.20 53.52 51.32 50.40 47.08 48.62 46.68 47.42 47.57 46.99 49.76 50.05 51.15 49.45 50.06 47.83 49.64 51.05 50.47 52.54 52.59 52.30 49.55 50.87 48.18 49.51 49.48 48.54 51.49 52.02 51.68 52.16 52.76
55.48 55.12 54.74 54.74 54.82 55.99 57.01 56.17 55.49 54.04 53.21 59.41 60.60 60.83 57.39 47.58 50.42 49.83 50.00 48.53 46.80 47.67 48.54 48.64 48.99 51.14 49.67 50.33 52.31 53.11 52.18 51.21 51.30 50.91 49.99 50.50 50.44 49.11 46.02 49.52 49.29 46.33 49.67 52.94 53.92 55.49 56.00
55.45 55.36 55.25 54.75 54.62 55.03 56.63 56.61 55.79 54.87 53.77 58.55 59.28 59.13 55.49 49.44 50.52 50.29 48.67 48.00 47.92 48.85 47.98 48.32 48.82 51.11 51.91 54.11 53.43 53.64 53.89 52.14 52.06 52.50 53.62 50.33 49.98 49.76 45.33 48.90 41.34 49.66 53.56 53.86 55.36 56.66 58.16
54.66 54.99 55.22 55.14 54.54 54.62 55.55 56.75 55.97 55.33 54.68 58.78 61.01 58.76 56.93 50.97 51.94 50.22 49.33 49.60 51.11 51.65 50.33 49.12 49.58 52.72 54.62 52.94 50.56 47.67 48.55 48.23 50.08 50.75 51.36 53.02 50.89 46.69 43.86 44.27 48.03 49.58 50.73 51.11 51.74 53.27 59.20
54.99 55.03 55.27 55.60 55.46 54.36 54.95 56.34 56.04 55.66 54.87 58.31 61.37 61.24 58.84 53.22 50.43 52.46 51.13 51.81 51.82 52.11 51.06 50.48 53.79 55.74 54.82 52.51 49.38 44.27 43.58 45.54 44.12 46.35 50.47 50.36 52.29 48.02 46.45 41.37 40.09 48.25 51.98 54.60 54.58 49.97 60.12
54.91 55.01 54.85 55.33 55.56 55.06 54.56 55.76 55.98 55.94 54.87 56.52 61.84 61.90 58.98 54.61 55.49 53.70 52.02 52.17 53.88 52.69 51.72 52.63 52.42 52.65 54.75 49.98 46.85 45.46 46.28 48.89 44.18 44.10 45.62 46.72 47.27 42.45 44.87 43.06 46.45 51.65 53.47 54.74 46.56 48.92 56.22
54.97 54.85 54.82 54.91 55.01 55.46 54.34 55.35 55.67 55.62 55.24 55.74 61.42 62.94 59.43 56.89 55.93 56.24 54.99 54.12 54.57 54.86 51.05 52.95 51.92 52.28 51.29 47.88 46.90 48.18 46.75 50.02 46.29 48.51 46.75 46.50 44.52 44.33 46.36 41.67 40.70 53.96 53.81 50.34 53.85 57.13 57.87
54.89 54.69 54.76 54.95 54.84 55.45 54.37 54.78 55.40 55.28 54.81 54.23 59.48 61.92 61.81 57.97 57.10 59.68 58.39 57.19 56.69 56.81 56.02 55.05 53.01 51.62 53.40 51.74 51.18 52.03 48.01 48.97 46.27 43.86 50.55 45.56 49.23 47.79 47.06 47.57 52.95 54.74 54.37 57.10 58.33 57.67 57.53

GFSGBSN_sfc_wetblb_111.txt.gz
Wetbulb
60.88 60.55 60.15 59.06 58.16 58.22 57.86 57.65 57.14 57.16 57.25 57.29 57.20 57.21 57.06 56.55 56.43 56.52 56.19 55.96 55.90 55.94 55.47 55.63 56.09 56.57 58.48 57.05 55.74 65.89 65.99 67.85 60.83 62.97 62.62 60.60 58.73 59.15 59.10 64.68 64.77 63.72 65.11 66.12 65.67 64.54 65.41
61.19 60.77 60.52 60.04 59.25 58.01 58.02 57.58 57.50 57.25 56.85 56.94 57.14 56.99 56.82 56.55 56.27 56.19 56.28 56.24 56.50 56.06 56.02 56.32 56.55 56.39 57.60 54.01 57.81 63.94 62.16 60.59 58.41 63.10 61.76 61.13 59.34 60.76 62.45 64.58 63.14 65.79 64.69 65.22 64.80 63.04 64.46
61.41 60.66 60.52 60.30 59.63 58.43 57.44 57.85 57.64 57.45 57.02 57.07 56.62 56.78 56.67 56.30 56.10 55.90 55.75 55.22 55.85 56.16 56.05 56.38 56.75 58.40 57.74 56.11 58.93 65.73 63.00 58.09 58.66 62.14 60.04 61.47 60.99 58.79 65.08 63.80 66.89 63.84 61.95 64.19 62.78 63.22 62.69
61.45 61.25 60.69 60.26 59.60 58.78 57.70 57.86 57.91 57.17 56.63 56.80 56.94 56.55 56.57 56.44 55.95 55.71 55.34 54.65 54.63 56.16 56.10 56.30 56.96 59.77 56.89 58.90 61.43 64.87 63.95 62.07 61.80 61.39 61.49 61.33 61.07 59.36 64.28 65.93 65.59 61.55 62.75 58.06 61.88 62.65 63.15
61.36 61.03 60.85 60.40 59.45 58.76 57.87 57.05 57.43 57.47 57.05 56.40 56.50 56.29 56.16 56.34 55.92 55.21 55.11 54.58 55.79 56.78 57.02 57.34 59.16 59.50 54.04 57.41 59.60 62.49 63.59 60.50 59.88 60.75 61.80 60.83 60.61 59.71 65.05 60.91 58.90 61.06 54.98 57.44 58.43 63.10 61.75
61.19 60.97 60.63 60.59 59.65 58.69 58.12 57.18 57.12 57.49 57.27 57.16 56.74 55.99 55.77 55.75 55.43 54.70 54.92 54.80 57.51 56.91 58.46 60.88 60.16 56.07 57.27 53.78 60.17 59.34 61.35 61.26 57.52 57.61 57.25 56.69 56.42 57.52 61.89 60.01 54.12 56.19 57.10 57.55 56.71 60.38 60.78
60.62 60.40 60.50 60.29 59.79 58.68 58.04 57.08 56.49 57.32 57.06 56.99 56.89 56.48 55.76 55.12 55.23 54.25 55.22 61.25 59.40 58.98 59.91 56.93 55.72 55.24 56.06 59.59 61.20 58.78 57.61 57.78 56.76 55.70 52.17 54.02 51.94 53.90 59.52 61.04 57.89 57.35 57.39 55.62 58.61 62.08 58.40
60.46 60.17 60.08 59.68 58.74 58.53 58.02 56.99 56.49 57.07 56.89 56.77 56.90 56.34 55.43 54.68 53.96 53.75 56.27 58.52 57.60 58.39 54.06 57.88 56.46 56.45 58.15 60.09 55.13 57.48 58.36 52.95 51.98 50.40 53.97 51.75 49.60 55.91 59.74 60.33 58.43 55.92 56.21 55.86 59.54 60.93 57.36
59.95 59.60 59.53 58.84 58.21 58.11 57.88 57.00 56.60 57.00 56.86 56.68 56.60 55.89 55.13 54.26 53.71 54.91 60.30 59.31 61.56 60.67 55.07 54.33 56.13 55.93 56.60 57.67 55.52 55.30 57.21 55.54 51.48 49.35 51.14 50.87 52.18 55.43 58.37 58.72 56.50 56.83 57.48 57.12 57.88 58.31 58.95
59.37 58.94 58.61 58.07 57.95 57.90 57.71 56.79 56.64 56.78 56.47 56.39 56.59 55.62 54.98 53.53 52.56 60.96 57.89 61.51 61.63 60.97 51.36 51.48 53.46 55.86 57.39 56.47 54.35 58.95 58.10 54.96 52.65 49.52 51.26 52.39 54.60 53.66 56.46 57.58 58.06 53.03 61.42 59.09 58.49 56.66 51.79
58.45 58.70 58.35 57.89 57.84 57.67 57.41 56.86 56.64 56.39 56.07 56.03 55.73 54.90 53.81 52.23 58.37 57.70 59.77 61.92 61.60 60.41 38.63 52.44 53.90 59.41 58.27 55.40 55.53 55.16 59.11 54.74 50.55 50.31 51.91 50.90 52.05 52.80 55.26 57.37 58.24 55.57 58.56 59.36 59.59 56.72 55.51
58.48 58.51 58.44 58.07 58.17 57.45 57.04 56.73 56.69 56.07 55.81 55.62 55.00 54.10 53.22 56.71 59.28 60.27 61.22 61.67 60.22 49.69 40.39 49.81 53.75 53.13 53.44 54.98 54.29 55.52 55.36 57.12 57.41 51.73 52.42 53.31 56.18 55.45 56.48 59.31 58.47 58.25 57.09 58.73 58.29 55.63 50.59
58.54 58.46 58.32 57.99 57.98 57.40 56.74 56.59 56.65 55.97 55.20 54.65 53.49 52.48 53.37 61.19 59.20 62.53 61.67 58.74 49.92 44.21 51.39 48.21 49.82 52.60 52.43 51.98 53.21 54.18 52.52 51.86 51.07 47.96 48.55 52.41 53.22 56.13 57.80 55.78 56.51 56.40 55.58 51.55 47.84 48.84 49.82
57.89 57.59 57.89 57.61 57.44 57.28 56.91 56.79 56.47 55.60 54.99 53.98 51.86 51.06 56.72 61.16 62.79 61.25 60.47 54.81 44.24 47.59 48.85 51.94 51.22 51.52 50.25 52.22 52.62 52.97 52.31 50.59 53.14 51.93 49.45 47.71 47.04 53.91 56.07 55.75 53.72 55.51 55.76 50.18 44.27 46.32 48.43
56.98 56.72 56.91 57.04 57.10 57.16 56.96 56.27 55.93 55.34 54.69 53.24 51.09 60.87 61.56 63.44 62.82 61.61 57.00 49.73 47.76 49.34 50.99 49.84 50.33 49.13 50.09 51.98 51.80 52.05 52.14 51.34 52.76 53.40 49.33 48.15 48.13 54.89 55.17 55.67 56.32 54.26 53.19 58.81 51.34 52.91 51.07
56.52 56.01 55.81 56.51 56.80 56.90 57.02 56.20 55.70 55.02 54.26 52.70 61.84 61.19 60.94 63.04 63.67 60.59 54.77 45.63 49.57 52.31 52.83 52.06 47.09 50.25 48.05 49.48 49.17 50.28 50.09 53.79 52.40 53.52 55.28 52.35 47.86 53.17 53.87 55.23 54.99 53.72 57.14 51.91 53.84 45.88 43.25
55.65 55.71 55.96 55.81 56.35 56.74 57.14 56.28 55.74 54.73 53.56 52.42 60.83 58.34 61.60 63.74 62.81 57.63 51.52 49.55 50.59 52.74 53.57 51.41 49.45 48.68 49.60 49.49 50.26 50.57 50.34 52.63 53.04 53.37 54.58 53.34 51.11 50.86 52.74 51.57 51.03 51.40 51.19 53.65 53.96 52.31 46.89
55.77 55.90 55.80 55.97 55.98 56.56 57.18 56.22 55.22 53.62 52.42 51.61 60.97 55.66 61.69 63.08 55.14 55.25 51.16 51.58 49.45 51.02 53.68 52.26 52.27 51.60 50.09 50.39 50.08 49.66 50.00 51.84 55.02 55.01 51.39 53.57 51.68 48.03 50.32 53.90 54.44 53.59 52.01 52.23 48.70 49.54 51.64
55.74 55.70 55.86 55.94 55.94 56.46 57.08 56.09 54.69 53.24 52.77 59.36 59.40 56.41 61.33 60.88 51.86 51.25 51.99 50.82 51.38 50.97 51.04 50.96 51.25 52.24 52.50 50.94 48.61 51.31 51.96 54.73 54.74 54.01 53.26 54.31 50.11 47.17 47.75 51.63 53.08 50.67 52.39 52.88 52.62 52.35 49.85
55.64 55.49 55.69 55.64 55.84 56.25 56.80 56.09 54.45 53.52 53.09 57.41 58.91 53.21 56.46 57.15 56.43 53.69 50.75 50.05 49.33 51.15 50.71 51.47 51.18 52.78 51.52 50.83 52.40 50.79 50.64 53.39 53.92 54.94 56.40 56.15 51.00 49.83 44.85 48.04 52.02 50.52 50.88 52.84 51.77 48.60 49.54
55.63 55.41 54.99 54.83 55.47 55.83 56.58 56.31 54.81 53.86 53.26 57.64 58.82 55.13 55.76 53.37 52.31 53.20 52.27 50.75 48.15 48.21 51.31 51.90 51.60 51.77 51.12 49.26 50.07 49.40 51.36 53.17 53.66 53.92 54.47 54.01 49.60 50.56 50.56 51.57 53.30 52.02 50.87 51.01 51.03 52.06 50.05
55.81 56.06 55.97 55.47 54.96 55.67 56.22 56.62 55.24 54.20 52.79 60.50 58.24 56.03 55.18 56.15 52.53 51.92 47.97 49.59 47.60 48.49 48.28 48.69 50.83 50.86 52.26 50.98 51.99 49.08 51.63 52.19 51.46 54.04 53.52 54.34 49.54 51.25 49.68 50.52 51.18 50.68 51.98 51.95 51.66 51.81 52.21
54.98 55.06 55.98 56.13 55.45 55.44 55.90 56.39 55.49 54.33 53.44 60.92 62.87 62.15 58.70 51.05 52.38 51.09 51.34 50.13 48.84 48.55 49.33 49.43 50.93 52.33 50.88 52.65 54.35 54.92 54.47 54.28 54.57 53.24 51.88 52.34 51.02 48.71 47.10 50.35 49.65 47.46 50.65 51.79 52.74 53.69 52.99
55.02 55.29 55.58 55.73 55.86 55.29 55.43 56.18 56.12 55.22 53.98 60.84 62.12 61.35 56.80 51.70 51.74 52.33 50.03 48.96 48.57 49.76 49.53 49.28 50.12 51.23 55.10 56.97 56.28 55.80 54.86 54.49 53.98 53.78 54.41 51.86 51.58 51.02 47.37 49.90 42.03 50.55 56.11 55.60 55.01 56.30 58.16
55.40 55.55 55.63 55.38 55.86 55.72 55.43 55.97 56.97 55.81 55.02 58.95 62.32 61.21 58.14 52.51 52.63 51.70 50.40 50.89 51.87 52.56 51.61 50.49 50.34 53.81 57.12 55.15 52.21 50.19 50.15 50.73 50.63 52.59 52.98 53.93 52.25 47.98 45.57 45.96 45.27 48.32 53.37 53.05 53.43 54.63 59.76
55.32 55.64 55.58 55.39 55.63 56.06 55.71 55.23 56.71 55.73 55.16 57.53 62.22 63.39 60.77 55.17 52.86 53.29 51.69 52.45 51.94 52.65 52.33 51.80 55.10 56.01 53.95 52.75 50.68 46.07 43.87 47.34 46.40 48.27 53.30 53.29 53.68 49.56 47.49 43.68 37.51 45.51 52.70 56.45 56.16 50.46 56.14
54.85 55.30 55.36 55.52 55.35 55.78 56.13 55.23 56.04 56.00 55.47 56.07 62.67 65.02 61.31 55.43 57.56 55.08 53.23 53.37 54.87 53.19 51.96 53.46 53.40 53.98 53.92 50.64 47.40 47.07 46.28 50.90 45.07 45.84 45.77 46.35 46.77 46.11 46.38 45.15 47.62 52.69 52.17 55.71 45.59 49.80 57.92
54.98 55.06 55.06 55.22 55.16 55.27 55.88 55.43 55.38 55.82 55.79 55.79 62.80 65.94 61.71 57.16 58.09 57.03 56.42 55.19 54.38 53.87 51.59 55.11 52.60 53.79 52.16 48.97 48.83 49.44 47.13 51.01 48.48 49.50 49.02 48.03 45.18 44.83 47.17 40.37 40.57 55.68 54.98 50.46 55.56 58.56 58.82
54.98 55.10 54.96 55.08 55.04 55.08 55.61 55.52 54.92 55.67 55.38 54.47 60.32 64.08 64.05 60.86 58.56 60.53 60.11 59.99 57.78 56.70 55.10 55.64 54.03 54.03 54.24 53.13 52.84 52.68 49.00 49.95 48.19 44.45 52.54 45.82 49.86 48.86 49.59 48.94 55.09 56.77 56.63 58.14 59.58 59.38 60.31

GFSGBSN_sfc_wetblb_114.txt.gz
Wetbulb
61.69 61.10 60.70 60.49 59.29 58.20 57.78 57.90 57.68 57.35 57.35 57.37 57.61 57.47 57.43 57.30 57.03 57.01 56.87 57.06 56.97 56.98 56.50 56.68 56.63 57.20 57.53 56.38 56.67 65.51 69.07 68.89 60.49 54.91 59.18 61.09 59.35 59.17 59.27 62.14 64.02 63.47 64.73 66.28 66.25 66.28 65.28
61.95 61.27 60.81 60.31 59.95 58.61 57.91 57.81 58.13 57.61 57.52 57.49 57.34 57.37 57.39 57.07 57.02 56.94 56.89 56.58 56.47 56.93 57.10 57.07 57.41 57.11 55.69 53.61 60.34 64.93 64.26 63.61 54.92 55.00 59.69 61.92 59.89 60.74 59.38 61.03 62.76 65.10 65.54 65.23 65.01 64.88 64.55
61.87 61.70 61.26 60.55 59.84 58.79 57.95 57.62 58.13 57.72 57.00 57.32 57.53 57.23 57.09 57.05 57.08 56.78 56.64 56.26 55.90 56.23 57.02 57.34 57.58 57.72 56.75 56.44 60.45 60.50 62.61 59.59 56.33 56.20 59.97 62.39 61.89 59.88 60.05 62.23 66.43 66.40 62.79 63.02 62.85 62.99 63.17
61.69 61.43 61.30 60.53 59.75 59.30 57.93 57.10 57.71 57.96 57.37 56.84 56.89 57.04 56.87 56.88 56.92 56.71 56.13 55.72 55.58 56.02 56.99 57.32 57.29 57.77 56.22 60.46 61.81 62.83 64.54 57.26 57.91 59.95 62.56 62.71 62.39 59.14 58.00 64.67 64.51 62.94 61.50 57.24 61.22 62.49 62.98
61.19 61.06 60.92 60.88 60.01 59.08 57.85 57.06 57.29 57.87 57.70 57.51 57.12 56.75 56.64 56.41 56.44 56.15 55.58 55.52 56.54 57.69 58.02 58.15 57.67 57.48 55.79 57.81 55.79 62.24 63.36 58.72 58.78 58.94 61.06 61.65 59.87 56.91 57.70 57.50 58.67 61.15 55.29 56.17 57.94 61.98 61.57
60.79 60.65 60.36 60.44 59.58 58.94 58.09 57.17 56.73 57.42 57.87 57.66 57.38 57.08 56.72 56.03 55.43 55.25 55.23 55.55 58.50 56.88 58.63 60.53 59.98 55.87 58.83 54.40 58.32 60.98 62.71 61.66 57.68 57.96 58.03 57.44 55.99 53.94 55.53 57.45 52.48 54.57 57.03 56.65 56.40 60.19 60.96
60.55 60.31 60.32 59.47 58.44 58.66 58.10 57.48 56.79 57.29 57.58 57.48 57.35 57.28 56.66 56.14 55.43 54.37 54.57 59.73 58.62 57.79 59.60 56.84 56.71 56.22 56.38 58.85 60.69 57.84 60.56 59.77 57.38 56.14 52.67 55.06 51.45 49.52 54.12 59.92 58.86 57.85 56.82 55.54 57.75 60.65 58.11
59.99 59.93 59.59 58.73 57.79 58.07 57.95 57.73 57.14 57.46 57.20 57.34 57.11 56.98 56.48 55.93 54.89 54.29 55.05 58.07 57.68 58.36 53.94 59.72 56.78 56.59 57.92 59.48 54.89 56.92 57.87 54.07 52.98 50.26 53.07 51.59 48.53 53.06 56.55 59.38 57.95 58.33 57.65 55.58 58.74 59.65 57.49
58.93 59.10 58.64 58.60 58.37 58.42 58.06 57.57 57.19 57.13 57.00 56.96 56.86 56.75 55.85 55.28 54.45 54.26 58.49 59.20 61.81 61.05 54.56 54.71 56.36 55.54 55.65 58.32 54.88 55.03 55.49 53.94 51.09 49.84 51.13 50.32 51.26 53.99 54.64 56.90 56.76 57.67 57.23 56.31 55.80 57.72 57.86
58.57 58.81 58.51 58.39 58.48 57.82 57.79 57.54 57.48 57.26 56.82 56.60 56.58 56.04 55.06 53.62 53.37 60.95 58.89 61.37 61.92 61.86 51.29 51.48 53.45 55.49 56.70 56.22 54.28 58.28 57.61 55.15 52.82 48.71 50.31 51.28 54.65 52.88 52.63 56.08 58.48 54.93 60.66 57.81 57.11 53.69 50.38
58.75 58.55 58.61 58.17 58.38 57.45 57.40 57.16 57.14 57.07 56.67 56.23 55.39 54.74 53.92 52.89 56.39 56.49 59.70 61.43 62.11 59.95 40.57 52.69 53.95 59.71 57.86 54.23 55.46 55.40 57.66 55.30 50.66 50.51 50.39 49.20 51.56 51.84 51.06 53.71 59.49 54.52 60.02 59.05 56.80 54.41 53.38
58.19 58.30 58.32 58.25 58.24 57.95 56.94 56.67 56.88 56.69 56.27 55.83 54.78 54.41 53.69 56.71 57.17 58.89 61.32 61.86 60.13 50.15 40.94 49.66 53.76 53.24 52.41 54.92 54.68 55.50 54.54 56.56 55.15 52.02 51.46 51.46 55.30 53.96 53.56 57.54 58.87 59.26 59.16 56.29 54.44 53.23 48.31
56.75 56.87 57.44 57.48 57.49 57.45 57.17 56.46 56.42 56.01 55.64 54.89 53.73 52.98 53.16 58.87 60.17 62.68 62.29 58.98 48.73 44.73 51.22 49.20 50.60 52.26 52.33 52.00 52.64 53.35 51.45 50.43 50.26 46.49 47.10 50.00 52.35 54.98 56.01 53.90 58.99 57.03 55.57 49.83 46.67 48.11 47.67
56.89 56.36 56.87 56.77 56.68 57.08 57.09 56.61 56.22 55.81 55.18 54.02 52.08 50.96 56.61 59.25 63.07 63.01 60.32 54.46 44.83 48.54 48.67 51.22 51.08 52.78 49.35 52.43 52.14 52.14 50.79 48.92 52.47 51.28 48.78 46.50 46.18 52.97 55.77 54.94 54.92 54.33 53.90 50.37 43.33 44.96 47.58
56.40 55.90 56.44 55.82 56.07 56.46 56.86 56.65 55.97 55.50 54.57 53.30 51.19 60.17 61.47 63.23 61.55 61.94 56.49 48.42 48.25 49.67 50.96 50.86 50.27 48.78 49.91 51.84 52.36 51.56 51.25 50.43 51.72 53.07 48.47 48.12 46.90 54.48 55.67 56.41 56.32 53.47 51.57 56.39 52.76 50.02 48.83
56.02 55.71 56.09 56.11 55.53 56.10 56.60 56.56 55.81 55.38 54.39 52.94 58.96 62.04 61.02 61.63 63.05 60.61 54.63 46.66 49.42 51.80 52.37 51.92 48.19 50.60 48.22 49.60 49.13 50.40 51.24 53.62 52.76 54.24 54.71 52.16 48.14 52.55 54.36 55.19 55.16 54.27 56.04 50.51 53.33 44.66 42.55
56.13 56.21 55.42 56.13 56.03 55.87 56.60 56.59 55.77 54.89 53.61 52.73 59.39 58.22 61.03 61.50 62.08 57.29 51.12 49.66 50.06 52.02 53.15 51.09 50.15 49.02 50.07 49.29 50.36 49.92 50.79 53.22 54.43 53.57 54.53 53.13 50.92 50.29 53.46 51.33 50.36 50.70 50.27 51.90 52.62 52.28 45.46
56.41 56.20 55.78 55.34 55.80 55.85 56.18 56.48 55.50 53.86 52.47 52.57 59.99 54.87 60.52 62.61 55.18 55.70 51.76 51.39 49.56 51.19 53.86 52.22 51.82 51.39 50.90 51.20 50.56 50.41 49.93 52.92 55.14 54.43 51.31 53.39 50.91 47.86 49.97 53.66 54.69 53.14 51.38 50.86 47.42 48.56 51.26
56.41 55.98 55.29 55.16 55.46 55.83 55.94 55.91 55.10 53.48 52.74 56.94 57.13 58.73 60.04 60.98 51.75 52.15 52.30 50.90 51.74 51.40 51.00 50.72 51.68 52.04 53.13 50.77 48.75 51.65 51.85 54.89 54.44 53.12 52.61 54.41 50.20 45.29 47.67 51.13 53.89 50.80 51.74 52.20 51.39 51.24 49.74
56.33 56.29 55.44 55.37 55.13 55.38 55.69 55.44 54.88 53.83 53.41 55.66 58.29 53.82 56.16 56.95 56.15 53.68 51.29 50.63 49.79 51.95 50.34 51.07 51.02 53.02 51.95 50.66 52.17 49.94 51.31 53.96 53.77 54.12 58.44 57.52 51.30 48.97 44.19 48.39 52.10 51.03 52.47 50.86 50.48 47.23 48.08
56.15 55.99 56.65 56.51 55.63 55.63 55.59 55.55 55.08 54.17 53.66 55.61 57.76 55.41 56.70 51.60 53.06 52.81 52.97 52.11 48.52 48.58 51.64 51.71 52.01 51.39 51.18 50.12 50.95 50.13 52.32 52.56 53.89 56.33 53.52 52.73 48.19 50.20 50.03 51.72 51.72 51.44 51.82 52.48 49.43 51.12 48.45
55.73 55.10 55.74 56.41 56.48 55.42 55.30 55.36 55.40 54.33 53.19 58.24 57.24 57.52 59.07 54.03 54.05 52.31 49.01 49.66 48.22 49.20 48.85 49.16 49.07 51.92 51.76 50.63 52.05 50.25 52.32 52.61 51.82 54.31 54.05 53.80 48.63 50.26 48.23 50.92 52.00 49.66 51.87 52.63 51.82 50.89 51.24
55.02 55.25 55.87 56.36 56.34 56.51 55.41 55.21 55.63 54.61 53.46 61.74 61.87 62.08 58.74 53.44 52.29 50.79 51.22 51.20 49.74 49.40 50.53 49.40 50.06 51.36 52.24 53.29 54.31 55.01 55.39 54.22 54.79 53.72 50.14 49.96 50.86 49.49 46.09 49.85 49.31 46.69 50.86 51.29 52.80 53.00 53.34
55.33 55.85 56.02 56.19 56.24 56.50 56.67 55.68 55.96 55.81 54.45 57.10 61.44 61.05 57.91 51.88 53.44 51.49 51.56 50.39 48.95 50.55 50.32 50.21 49.78 50.21 55.26 58.50 56.61 55.61 54.83 54.45 53.70 53.23 54.56 51.84 51.58 49.91 46.55 47.82 40.93 49.70 55.03 54.41 52.77 56.19 57.93
55.10 55.25 55.74 56.02 56.10 56.21 56.70 56.55 56.29 56.38 55.50 56.03 59.51 60.33 58.36 53.59 54.03 53.12 51.61 50.41 51.71 52.78 49.52 50.79 51.52 52.94 55.31 54.00 51.44 50.28 49.84 50.91 51.95 53.47 53.06 53.76 51.74 47.50 43.91 39.86 47.11 50.20 52.99 51.44 50.12 49.43 56.83
54.55 54.65 55.26 55.81 55.94 55.97 56.41 56.66 56.29 56.37 55.67 55.81 60.49 63.60 60.62 56.56 53.74 55.49 52.20 52.15 51.22 52.31 52.89 52.93 55.34 55.65 53.82 50.71 49.91 46.09 43.84 42.53 43.63 49.50 54.34 53.07 53.90 48.96 47.32 42.02 37.46 47.62 53.53 55.97 54.64 48.18 57.51
54.59 55.00 55.58 55.67 55.83 55.84 56.13 56.34 56.32 56.02 55.88 55.27 58.11 62.88 60.74 56.87 57.79 55.89 52.46 52.71 54.50 52.84 51.99 54.48 53.78 53.60 53.63 49.25 47.00 46.24 45.92 45.88 40.70 45.24 45.65 46.66 49.29 45.29 45.98 43.51 45.80 51.30 54.07 55.07 43.08 49.34 57.66
54.69 55.12 55.54 55.36 55.50 55.39 55.48 55.75 56.36 55.54 56.17 55.05 58.44 64.42 61.08 58.41 58.54 57.76 56.73 55.61 54.48 52.95 50.88 55.15 54.05 53.03 51.87 48.57 48.17 48.46 48.39 48.90 48.02 49.33 47.43 42.33 42.06 45.88 47.05 44.66 41.44 54.15 52.58 47.21 55.41 57.73 58.38
54.94 55.24 55.26 55.28 55.26 55.41 55.37 55.60 56.29 55.46 56.41 55.06 56.09 64.04 63.87 59.96 59.24 60.56 60.11 60.37 58.18 57.12 54.73 55.64 53.41 55.93 54.21 51.65 52.00 51.08 49.57 49.30 48.26 44.10 53.14 46.03 49.91 47.85 46.64 47.57 55.23 56.92 55.94 57.88 58.32 58.54 58.99

GFSGBSN_sfc_wetblb_117.txt.gz
Wetbulb
62.26 61.71 61.17 60.64 60.12 58.46 57.76 57.77 58.57 58.33 58.03 58.00 58.20 57.69 57.76 57.64 57.72 57.60 57.60 57.53 57.27 57.27 57.50 57.56 57.68 57.72 55.08 51.64 52.94 62.98 70.02 68.40 60.21 53.33 51.15 54.84 56.03 55.90 54.02 60.03 63.76 62.41 64.79 65.67 66.48 65.29 64.57
61.97 61.74 61.74 60.75 59.50 58.66 57.84 57.78 58.10 58.44 57.75 57.66 57.82 57.89 57.62 57.52 57.57 57.73 57.53 57.23 56.90 56.68 57.12 57.81 57.96 57.81 51.91 47.31 61.65 64.19 63.53 62.41 58.49 52.47 51.55 55.48 57.76 58.19 55.92 58.06 61.77 64.77 64.50 64.34 64.91 64.02 64.00
61.64 61.31 61.46 60.80 59.84 58.46 57.86 57.19 57.72 58.30 58.25 57.76 57.36 57.35 57.43 57.50 57.50 57.57 57.30 56.96 56.60 56.64 56.69 57.70 57.89 56.96 52.42 52.53 60.06 61.88 61.91 59.72 57.86 50.37 51.53 57.39 59.93 56.64 56.42 58.65 66.00 65.11 61.67 62.38 62.62 63.29 62.71
61.01 60.85 60.83 60.97 59.95 58.44 57.93 57.22 57.49 57.91 58.05 57.86 57.82 57.72 57.30 57.15 57.09 56.84 56.67 56.23 56.28 56.83 57.04 57.57 57.56 54.50 50.18 60.94 60.04 59.03 59.06 57.17 56.91 51.70 52.94 58.53 60.86 57.31 53.92 64.52 64.00 61.71 60.59 55.80 61.09 62.42 62.50
60.97 60.60 60.40 60.15 58.88 58.37 57.72 57.93 57.62 57.63 58.14 58.18 57.92 57.59 57.47 57.05 56.66 56.01 55.37 55.62 56.82 58.43 58.60 58.17 53.96 51.18 52.24 61.23 54.49 57.08 58.86 54.38 52.22 53.22 54.06 59.36 58.55 53.64 53.75 49.65 55.55 57.16 52.56 55.02 56.42 62.03 61.04
60.44 60.11 60.03 59.12 58.25 57.62 57.58 57.94 57.83 57.67 57.86 57.92 57.68 57.49 57.39 56.91 56.42 55.59 54.68 54.96 57.54 57.90 58.02 58.64 57.49 51.05 56.36 55.39 54.21 55.73 60.09 59.06 52.38 53.04 53.60 54.31 51.52 47.92 47.56 48.02 46.56 51.32 53.31 55.46 55.36 58.96 60.07
58.79 58.93 59.17 58.12 58.56 58.01 58.09 57.94 57.75 57.66 57.72 57.60 57.45 57.21 57.06 56.78 56.19 54.90 53.47 53.99 53.67 52.64 55.46 54.07 53.66 54.93 55.66 57.85 58.80 56.06 59.11 57.98 55.54 52.40 47.37 51.60 45.12 43.01 47.03 50.64 52.24 57.87 56.68 54.94 57.38 60.14 57.74
58.20 58.31 58.47 58.52 58.38 57.82 58.12 58.02 57.73 57.73 57.53 57.38 57.05 56.80 56.61 56.15 55.38 54.72 52.05 52.03 55.86 54.62 49.70 57.89 58.60 55.97 56.53 56.15 54.21 55.07 57.56 53.05 50.95 46.78 50.35 47.02 43.84 49.72 52.03 57.72 57.27 56.11 55.27 54.37 57.62 58.89 57.76
57.88 58.12 57.85 57.99 57.71 57.43 57.49 57.81 57.54 57.47 57.26 57.05 56.80 55.97 55.61 55.24 54.23 52.18 53.28 55.36 59.03 58.17 49.33 55.05 57.14 53.78 53.45 54.43 52.81 52.65 52.27 51.93 48.71 46.74 47.89 44.81 48.01 52.30 50.80 52.67 55.66 54.75 54.22 54.66 54.92 57.52 57.57
58.41 58.43 58.40 57.80 57.92 57.31 57.00 56.84 57.16 57.16 57.06 56.68 56.28 55.02 54.19 53.06 52.06 56.16 54.89 60.22 60.05 58.37 45.69 50.54 50.01 53.55 54.54 54.21 52.11 56.81 54.18 52.21 49.20 45.71 47.37 46.67 51.28 50.74 49.16 48.56 54.10 52.43 58.46 57.69 56.51 53.92 49.48
56.94 57.13 57.62 57.66 57.59 57.20 56.78 56.43 56.29 56.76 56.46 56.21 56.17 54.66 53.74 53.22 51.45 52.41 55.87 58.55 58.42 55.46 37.98 52.85 51.77 57.70 54.55 50.31 53.40 52.85 55.97 52.45 48.43 47.72 45.29 44.52 47.69 48.07 48.10 49.53 57.82 54.79 58.41 57.10 55.31 52.22 52.17
57.48 56.44 56.41 56.76 57.15 57.13 56.45 56.22 56.12 56.23 55.99 55.85 55.57 54.21 53.53 53.24 52.19 55.04 57.51 57.69 56.76 44.77 40.12 49.34 52.68 51.52 50.17 52.02 53.25 53.83 52.41 52.94 52.81 48.91 48.53 47.04 51.19 50.04 49.88 53.95 58.58 60.51 57.76 55.33 54.56 53.08 46.34
57.26 56.25 55.88 55.80 56.14 56.45 56.36 56.09 55.98 55.89 55.57 55.12 54.01 53.08 51.96 56.26 57.02 60.59 59.84 55.32 44.90 41.37 51.83 48.52 49.02 50.30 49.98 50.87 51.16 50.50 49.09 46.88 43.86 39.94 40.91 46.24 47.29 50.82 52.36 53.71 57.74 56.49 51.76 44.81 42.89 45.57 45.65
57.06 55.88 55.57 55.48 55.22 55.79 56.10 56.44 55.97 55.67 55.32 54.07 52.33 51.58 52.35 56.17 58.02 57.82 57.55 49.89 42.15 48.85 46.74 49.03 49.20 51.21 49.10 51.34 50.84 50.83 47.47 44.61 48.22 47.28 42.34 40.52 39.79 49.03 52.85 49.88 52.80 53.98 51.54 45.18 39.63 42.93 46.12
57.10 55.84 55.87 55.31 55.14 55.29 55.94 56.10 55.45 55.43 54.88 53.40 51.45 55.37 56.31 59.48 57.78 56.86 52.20 44.12 45.91 47.17 49.47 49.14 50.60 48.16 47.75 50.72 50.12 48.83 47.19 45.93 47.96 47.89 42.94 41.23 43.29 51.45 53.18 53.18 53.37 50.45 45.60 49.70 46.34 48.40 45.72
57.04 56.16 56.49 55.29 55.16 55.05 55.72 55.81 55.44 55.51 54.53 52.84 53.18 57.19 59.05 63.34 60.73 56.85 50.11 45.55 46.11 49.53 50.11 50.51 46.17 49.07 44.77 47.83 48.28 47.86 47.93 52.19 51.23 52.92 50.20 46.81 41.74 49.06 52.36 52.90 52.27 49.72 52.12 45.72 47.17 41.24 40.16
57.02 55.75 56.06 55.84 55.05 54.99 55.54 55.73 55.53 54.96 53.74 51.61 56.78 53.86 60.87 62.32 60.05 53.95 46.65 48.69 50.24 50.20 51.01 48.93 47.50 48.21 47.80 47.90 48.21 47.93 49.01 52.84 53.26 52.19 50.51 46.72 44.35 45.90 49.64 46.19 45.65 45.49 43.58 44.65 47.45 47.33 42.31
56.91 55.73 55.30 55.84 55.08 55.01 55.19 55.61 54.90 53.80 52.59 54.07 57.94 51.83 61.75 58.72 51.49 52.38 49.11 49.11 49.02 48.83 52.32 50.70 50.23 49.69 49.27 49.94 48.93 47.96 48.63 50.82 53.89 51.81 48.04 49.28 43.91 40.33 44.32 51.01 51.91 48.78 44.57 44.33 38.47 38.63 45.63
56.14 56.08 56.03 55.83 55.42 55.36 55.20 55.19 54.37 53.36 52.99 51.72 53.67 54.66 61.56 57.05 48.21 49.98 50.63 49.95 50.20 49.68 48.46 48.89 48.83 50.11 50.60 47.03 46.00 49.87 51.53 54.93 54.39 51.86 46.67 48.35 44.07 38.27 42.74 47.93 51.70 48.35 47.84 46.96 44.04 41.60 39.54
56.09 55.48 55.94 56.15 56.25 55.49 55.09 54.94 54.03 53.61 53.54 52.48 54.26 51.59 55.32 55.48 55.09 50.86 50.59 50.05 48.26 51.21 48.44 49.79 49.94 50.35 49.86 48.15 49.22 48.62 50.62 53.20 53.57 52.52 60.24 52.76 43.54 40.99 37.27 40.91 47.01 46.50 49.18 50.00 45.46 37.70 40.05
55.73 55.37 55.41 55.97 55.40 55.56 55.44 54.68 54.25 53.75 53.73 52.78 56.14 52.77 56.09 51.52 51.32 51.09 50.45 50.15 48.87 48.32 50.87 51.02 51.82 50.88 48.76 45.19 48.41 48.58 51.77 50.86 53.50 56.10 52.19 46.60 40.74 43.51 45.49 48.03 48.44 48.69 48.79 49.54 47.04 49.57 42.71
55.40 54.75 55.12 55.19 55.49 56.13 55.20 54.93 54.80 54.17 53.25 54.26 53.17 54.44 56.91 54.84 53.42 52.24 47.54 48.69 48.29 47.69 47.53 46.24 47.44 51.19 50.02 47.15 48.14 46.10 48.85 47.39 49.93 51.58 48.90 48.63 43.05 45.43 44.66 49.32 49.95 47.88 50.53 50.60 52.51 51.07 50.13
55.05 55.56 55.74 56.45 56.88 56.47 56.13 55.14 55.39 54.41 53.31 56.92 60.45 60.90 57.76 53.52 52.77 49.06 48.91 50.54 48.56 49.53 50.77 50.73 48.53 47.89 49.96 51.50 52.65 50.30 49.87 49.75 49.41 47.41 47.22 45.75 44.56 43.10 38.97 47.36 47.15 44.63 47.82 49.17 50.97 52.59 50.82
54.34 54.74 54.89 55.24 56.13 56.83 56.72 55.43 56.06 55.21 54.53 53.92 56.23 57.37 55.39 51.74 52.74 51.61 51.41 51.00 49.83 50.38 50.51 50.51 49.20 46.91 51.15 54.11 53.48 51.76 48.83 50.10 51.94 50.02 49.01 45.90 45.89 44.11 38.98 42.26 34.77 47.19 51.90 52.26 51.71 53.03 55.50
54.19 54.40 54.65 54.96 55.98 56.49 56.67 56.71 55.94 55.94 55.05 53.93 55.52 55.29 55.67 51.64 54.77 54.23 53.17 51.37 50.84 49.58 49.55 49.47 51.26 51.18 51.03 47.97 45.98 45.07 45.99 47.63 49.16 50.04 50.57 51.41 46.47 41.27 39.75 38.78 42.51 47.77 49.78 48.94 47.59 50.05 54.95
54.26 54.30 54.57 55.31 56.06 56.36 56.33 56.59 57.03 56.53 54.83 54.21 55.11 57.53 57.09 54.06 53.62 57.16 53.45 53.36 48.52 49.11 50.53 52.60 54.10 52.60 49.79 45.78 44.49 40.87 40.19 43.64 42.17 45.53 49.68 48.82 47.06 43.16 41.03 39.60 35.29 43.91 51.49 53.52 52.85 46.66 56.00
54.21 54.21 55.11 55.57 55.86 55.96 56.09 56.17 56.23 56.90 55.59 54.33 54.03 57.01 57.68 53.92 57.18 56.86 53.02 51.69 55.03 52.74 49.88 53.92 52.48 50.65 50.73 44.26 41.83 42.59 41.91 47.81 39.78 42.14 42.25 41.45 41.89 39.45 40.39 38.98 44.05 51.27 51.94 53.62 43.00 46.53 55.86
54.23 54.72 55.42 55.61 55.55 55.82 55.88 55.71 55.83 56.72 56.14 54.66 53.39 56.01 57.09 55.79 57.50 59.84 58.76 55.90 53.86 51.71 48.39 53.04 51.43 50.82 47.99 44.34 44.30 45.39 44.44 43.63 44.59 47.45 44.60 40.01 39.68 40.52 41.10 38.35 38.51 53.67 53.36 46.83 50.03 54.04 56.51
54.01 54.51 55.32 55.57 55.47 55.61 55.84 55.90 55.68 56.24 56.15 55.97 50.78 59.30 60.97 58.12 57.81 61.13 60.13 59.06 57.12 55.88 52.11 51.95 52.32 53.32 52.51 48.10 48.29 48.34 45.52 45.09 43.01 39.37 47.96 41.87 44.57 43.46 43.96 42.57 51.74 53.75 52.42 52.37 54.22 53.33 54.14

GFSGBSN_sfc_wetblb_123.txt.gz
Wetbulb
60.90 60.82 61.00 60.60 59.50 58.78 57.55 56.93 58.02 57.91 58.17 58.33 58.16 58.12 57.95 57.76 57.73 57.61 57.63 57.20 57.45 56.86 56.56 56.58 57.74 58.32 52.21 46.47 48.46 57.13 72.22 68.22 65.65 52.47 49.60 48.52 51.18 52.27 50.43 52.85 59.78 60.47 63.88 64.59 64.72 63.33 63.85
60.56 60.42 60.37 59.80 59.10 58.35 57.42 57.42 58.06 57.81 57.86 58.08 58.05 57.85 57.77 57.81 57.82 57.89 57.69 57.05 56.53 56.11 56.28 57.02 57.54 58.16 48.67 41.04 54.00 61.74 65.73 62.90 56.46 48.77 46.93 48.93 52.06 54.35 52.52 52.37 58.59 63.61 63.11 62.75 62.50 62.61 62.98
60.07 60.06 59.64 58.80 57.97 58.58 57.53 57.97 57.95 57.75 57.74 57.79 57.91 57.83 57.59 57.47 57.57 57.66 57.11 56.83 56.37 56.14 56.47 56.84 57.70 56.38 48.81 46.69 59.32 59.44 57.62 54.93 52.14 48.05 45.89 47.90 52.36 51.54 52.46 53.59 64.28 62.98 59.82 61.15 61.93 61.43 60.59
59.27 59.31 58.44 58.31 58.24 58.25 57.97 57.78 57.95 57.68 57.61 57.39 57.38 57.36 57.34 57.28 57.32 57.01 56.76 56.17 56.20 56.59 57.15 57.81 58.14 52.39 45.44 55.37 57.19 56.68 57.90 56.70 55.41 50.34 48.13 50.69 53.29 52.17 51.15 60.82 60.59 59.52 58.62 54.26 60.23 61.44 61.29
58.08 58.95 58.83 58.92 58.80 57.23 58.05 57.95 57.83 57.78 57.68 57.64 57.32 57.15 57.03 56.41 56.47 56.25 55.66 55.40 56.47 57.21 58.91 58.13 50.76 48.36 48.61 61.02 56.45 57.49 57.26 54.68 53.40 50.61 48.15 51.52 51.25 48.42 50.47 53.14 50.04 53.36 49.03 54.38 56.50 60.67 59.29
58.73 57.80 58.78 58.57 58.50 57.45 56.78 56.59 56.95 57.56 57.54 57.42 57.22 57.09 55.56 54.61 54.10 54.22 53.74 54.75 57.11 56.56 57.69 57.82 56.35 47.43 51.55 53.18 54.70 52.59 55.30 53.79 49.93 48.64 48.15 46.73 46.27 44.45 43.24 41.71 37.45 47.89 51.61 54.83 53.98 56.81 57.19
57.96 57.34 57.34 57.36 57.75 57.08 56.82 56.66 56.26 55.86 56.84 57.31 57.13 56.21 54.96 54.51 53.87 53.20 51.29 48.66 47.43 47.21 52.10 48.78 48.74 51.27 53.87 55.76 54.49 51.85 53.38 52.63 49.02 46.76 41.89 45.82 42.98 40.72 44.54 45.12 49.58 54.32 54.15 53.77 56.08 57.89 55.60
57.60 57.02 56.86 56.91 57.40 56.64 57.20 56.45 56.21 55.84 55.63 56.47 56.73 56.33 55.10 54.30 53.44 53.23 50.80 45.57 48.27 51.36 46.00 52.79 54.55 54.04 56.34 55.38 51.69 52.20 55.55 50.65 46.45 42.45 44.73 42.87 40.78 46.15 47.60 47.99 53.09 55.00 54.14 53.80 56.70 58.22 56.94
57.36 56.45 56.06 55.85 55.70 56.32 55.95 55.98 56.35 55.77 55.35 55.06 55.94 56.20 54.65 53.91 53.51 50.40 47.73 50.21 52.70 52.26 44.45 49.55 52.93 53.33 53.27 52.30 49.98 50.09 52.09 50.67 45.91 43.72 43.63 41.18 44.96 49.44 48.52 47.00 53.49 51.98 52.26 53.42 53.79 56.71 57.25
56.78 56.56 55.68 55.68 55.50 55.31 56.16 56.19 55.64 55.75 55.44 55.00 54.91 55.44 54.51 52.88 48.98 49.29 48.87 51.11 51.57 51.77 40.90 46.64 47.10 52.26 51.11 50.99 47.70 54.34 52.98 49.54 46.23 44.50 44.09 42.85 48.06 48.23 46.38 46.14 51.47 44.84 57.13 56.39 55.22 53.30 49.05
56.90 56.96 55.98 55.52 55.48 55.16 55.21 55.61 55.38 55.36 55.25 55.06 55.30 54.67 53.36 52.64 46.36 47.51 49.25 50.63 51.48 50.04 33.16 50.06 48.30 53.60 48.92 47.42 47.81 49.69 51.00 48.82 44.23 43.87 42.72 42.16 43.49 44.43 44.20 46.52 53.18 52.95 57.83 56.43 55.23 51.85 51.77
56.91 57.04 56.19 55.86 55.35 55.10 54.72 55.46 55.41 55.70 55.45 55.50 55.14 53.98 53.30 49.68 49.34 49.60 52.80 51.62 50.39 41.64 35.57 47.53 48.78 47.73 46.23 47.15 48.27 49.61 49.23 49.51 49.32 45.52 44.41 44.82 47.24 45.60 46.24 52.99 55.95 58.42 54.22 54.13 53.61 50.66 42.10
56.86 56.71 56.04 55.52 55.33 55.08 54.73 54.57 55.24 55.28 55.06 54.83 53.97 52.72 51.78 52.40 50.31 52.14 51.33 49.89 41.53 36.38 47.51 44.88 44.03 45.14 44.33 45.59 47.03 46.63 46.52 44.14 41.35 38.07 39.02 44.48 44.18 55.70 58.53 54.67 56.35 53.67 47.16 42.22 41.67 42.36 40.31
56.71 56.44 55.70 55.14 55.66 54.94 54.96 55.07 55.16 54.99 54.79 53.89 52.12 50.56 50.02 51.84 49.89 51.15 50.33 46.29 37.26 44.97 40.89 45.69 47.13 46.32 44.00 46.78 46.30 46.43 43.60 41.62 45.60 43.66 40.26 39.26 38.12 53.63 57.26 53.99 52.01 51.03 46.92 43.20 37.19 39.59 43.68
56.61 56.11 56.17 55.35 55.64 55.29 54.92 54.81 54.71 54.73 54.31 53.34 51.00 47.94 47.63 50.68 51.53 49.23 47.58 38.95 40.05 41.02 43.97 44.59 45.43 43.29 43.38 46.35 46.00 44.90 42.81 43.28 44.78 43.89 38.61 39.57 41.67 47.77 56.56 55.52 54.97 50.54 45.27 48.03 45.06 44.31 41.94
57.22 56.21 55.72 55.76 55.81 55.67 54.94 54.73 54.67 54.43 54.00 52.72 48.55 49.26 48.99 53.45 52.95 50.12 44.07 40.10 42.50 46.50 45.00 45.48 39.79 42.96 39.47 43.18 43.70 44.91 44.70 49.03 47.46 48.34 43.58 41.70 39.16 44.85 49.46 55.56 54.49 50.42 52.22 43.16 44.56 38.79 36.33
57.12 56.33 55.95 55.76 55.69 55.67 55.13 54.74 54.36 54.14 53.34 51.94 49.62 47.54 51.96 53.99 52.08 46.94 40.16 40.10 46.99 50.19 47.05 44.07 41.47 41.13 41.41 42.65 44.27 43.33 46.48 49.82 50.92 49.30 46.95 42.00 40.57 42.24 45.02 42.13 47.13 42.61 40.91 40.44 42.93 42.60 38.87
56.98 56.08 55.74 55.26 55.33 54.84 55.18 54.57 53.88 53.09 52.36 49.06 45.92 42.52 52.79 51.66 46.38 39.99 39.70 44.34 47.98 44.51 45.84 44.87 45.08 43.56 42.33 45.57 43.64 46.11 45.88 48.23 52.65 49.21 44.91 45.37 39.45 37.63 41.00 45.97 49.06 46.32 41.71 38.56 36.37 34.90 40.08
56.60 55.36 55.12 54.80 54.90 55.22 55.25 54.63 53.49 52.66 52.64 48.30 42.41 44.42 53.01 50.91 40.52 39.29 43.06 46.71 48.20 44.12 43.16 43.54 43.53 44.67 45.06 42.08 40.01 44.99 46.90 52.44 51.92 48.95 44.09 44.44 39.93 37.22 39.60 43.76 48.15 44.75 44.86 39.94 37.01 35.30 35.58
56.55 55.34 55.26 54.92 56.05 55.64 55.75 54.48 53.43 52.81 52.50 46.43 44.54 42.16 46.67 46.60 43.58 43.10 42.01 44.41 42.93 46.67 45.31 45.13 45.60 45.64 44.20 44.04 43.77 43.96 45.97 50.74 52.65 52.90 56.09 48.99 38.57 40.95 34.31 37.70 42.39 44.65 47.68 47.47 41.22 39.23 37.95
56.47 55.18 54.65 54.97 55.31 55.66 55.99 55.25 53.75 53.03 52.63 48.73 45.18 43.09 44.95 43.83 46.30 46.63 43.21 43.95 43.84 42.09 44.29 44.11 43.50 47.20 43.08 39.31 41.07 41.62 44.45 46.49 50.41 53.38 49.35 43.97 38.62 42.38 40.56 46.92 47.99 47.69 47.50 48.51 45.19 43.26 41.86
56.42 54.62 54.42 54.87 54.92 55.34 55.72 55.95 54.73 53.54 52.12 46.77 40.84 45.85 49.46 47.13 47.23 45.01 41.11 41.66 42.65 42.51 41.91 40.88 43.28 48.17 46.23 41.52 41.27 39.68 42.06 40.31 41.41 47.21 44.43 42.53 37.77 40.58 40.73 47.06 47.61 45.34 48.38 49.56 49.66 50.93 50.87
55.48 54.57 54.42 54.64 54.90 55.28 55.94 56.01 55.02 53.74 50.86 45.43 47.58 49.32 49.74 46.21 45.99 44.34 44.95 46.98 43.90 45.02 45.69 45.26 45.16 45.49 43.26 44.09 46.85 43.93 45.75 44.01 44.25 43.42 41.76 40.87 38.12 37.31 35.03 41.63 42.62 39.91 44.55 47.83 49.09 51.37 50.60
55.00 54.82 54.61 54.60 54.72 55.76 56.48 56.30 55.43 54.39 53.00 50.46 46.28 45.92 46.76 45.35 47.12 48.41 51.42 50.91 46.42 46.10 45.18 46.14 43.79 42.84 45.07 45.22 45.44 45.99 46.89 44.68 45.86 44.82 40.92 40.34 38.69 36.08 34.22 35.82 31.77 42.14 47.89 51.17 50.94 52.12 53.26
54.67 54.25 54.30 54.55 55.01 55.82 56.58 56.64 56.38 55.08 54.79 51.48 49.69 45.23 46.11 44.08 48.78 50.08 51.29 50.62 48.15 44.11 44.14 45.36 46.28 45.67 45.14 42.19 39.09 40.00 40.11 40.38 42.96 44.46 43.50 40.88 38.95 36.58 35.25 32.64 39.06 44.62 47.02 46.47 45.37 46.30 53.52
54.71 54.71 54.57 54.31 54.84 55.67 56.66 56.58 56.52 55.47 55.10 52.22 50.46 48.87 46.54 46.33 45.90 52.75 50.58 50.42 46.46 40.72 43.77 46.41 48.04 44.46 43.69 37.43 38.41 33.90 34.79 37.58 37.45 41.35 40.12 40.74 40.08 38.23 35.69 33.72 32.04 40.30 48.39 50.55 49.16 41.21 52.30
54.16 54.22 54.20 54.28 54.22 54.86 56.46 56.53 56.71 56.12 55.24 53.37 49.97 50.29 46.57 47.69 50.23 50.76 47.86 49.47 50.18 44.56 42.70 45.28 45.62 44.20 42.34 35.90 35.09 36.13 37.07 41.84 35.62 37.03 37.10 35.47 37.46 35.57 36.53 35.06 40.45 46.40 48.91 50.00 39.04 40.20 50.53
53.83 53.83 54.02 54.08 54.04 55.26 55.81 56.08 56.44 56.18 55.75 53.87 49.55 51.60 48.38 47.10 49.80 53.94 54.79 51.75 49.94 45.17 43.96 46.67 46.74 46.46 41.02 37.39 36.92 38.23 38.53 40.35 38.36 39.91 38.38 35.42 35.55 34.97 35.43 33.23 33.02 49.80 49.70 43.62 45.94 48.57 51.27
53.51 53.69 53.90 53.96 54.65 55.38 55.44 55.59 55.99 55.97 55.71 55.10 48.08 50.87 52.10 47.01 48.70 54.62 57.17 57.91 55.32 53.94 48.29 44.24 46.08 44.91 45.17 41.32 39.65 40.49 38.90 39.81 36.92 34.24 41.23 37.03 40.02 38.57 38.67 38.43 44.69 48.53 47.84 49.38 50.11 52.65 52.74